Observation data for Stinnett on 02/13/2018      Previous  Date  Next       Current Mesonet Observations  Soil Data  Daily Summary Page  Observations in Plain Language
KST3 130600Z 15008KT M02/M13 A3026 RMK A01 T10211127  RH  044%=      5-min Rain = 0
KST3 130601Z 15008KT M02/M13 A3026 RMK A01 T10221127  RH  044%=      5-min Rain = 0
KST3 130602Z 15009KT M02/M13 A3026 RMK A01 T10221127  RH  044%=      5-min Rain = 0
KST3 130603Z 15009KT M02/M13 A3026 RMK A01 T10221127  RH  045%=      5-min Rain = 0
KST3 130604Z 15008KT M02/M13 A3026 RMK A01 T10221126  RH  045%=      5-min Rain = 0
KST3 130605Z 16008KT M02/M13 A3026 RMK A01 T10221126  RH  045%=      5-min Rain = 0
KST3 130606Z 15008KT M02/M13 A3026 RMK A01 T10221126  RH  045%=      5-min Rain = 0
KST3 130607Z 16008KT M02/M13 A3026 RMK A01 T10231126  RH  045%=      5-min Rain = 0
KST3 130608Z 16008KT M02/M13 A3026 RMK A01 T10231126  RH  045%=      5-min Rain = 0
KST3 130609Z 16008KT M02/M13 A3026 RMK A01 T10221125  RH  045%=      5-min Rain = 0
KST3 130610Z 16008KT M02/M12 A3026 RMK A01 T10221124  RH  046%=      5-min Rain = 0
KST3 130611Z 16008KT M02/M12 A3026 RMK A01 T10221124  RH  046%=      5-min Rain = 0
KST3 130612Z 16008KT M02/M12 A3026 RMK A01 T10221124  RH  046%=      5-min Rain = 0
KST3 130613Z 16009KT M02/M12 A3026 RMK A01 T10211123  RH  046%=      5-min Rain = 0
KST3 130614Z 16009KT M02/M12 A3026 RMK A01 T10211122  RH  046%=      5-min Rain = 0
KST3 130615Z 17010KT M02/M12 A3026 RMK A01 T10211121  RH  046%=      5-min Rain = 0
KST3 130616Z 17010KT M02/M12 A3026 RMK A01 T10191119  RH  046%=      5-min Rain = 0
KST3 130617Z 16010KT M02/M12 A3026 RMK A01 T10181118  RH  046%=      5-min Rain = 0
KST3 130618Z 17010KT M02/M12 A3026 RMK A01 T10171118  RH  046%=      5-min Rain = 0
KST3 130619Z 17012KT M02/M12 A3026 RMK A01 T10171118  RH  046%=      5-min Rain = 0
KST3 130620Z 17011KT M02/M12 A3026 RMK A01 T10151115  RH  046%=      5-min Rain = 0
KST3 130621Z 17011KT M01/M12 A3026 RMK A01 T10141115  RH  046%=      5-min Rain = 0
KST3 130622Z 17010KT M01/M12 A3026 RMK A01 T10141116  RH  046%=      5-min Rain = 0
KST3 130623Z 17011KT M01/M12 A3026 RMK A01 T10141115  RH  046%=      5-min Rain = 0
KST3 130624Z 17010KT M01/M11 A3026 RMK A01 T10131114  RH  046%=      5-min Rain = 0
KST3 130625Z 17009KT M01/M11 A3026 RMK A01 T10131114  RH  046%=      5-min Rain = 0
KST3 130626Z 17010KT M01/M12 A3026 RMK A01 T10131115  RH  046%=      5-min Rain = 0
KST3 130627Z 16011KT M01/M11 A3026 RMK A01 T10121114  RH  046%=      5-min Rain = 0
KST3 130628Z 17010KT M01/M11 A3026 RMK A01 T10131114  RH  046%=      5-min Rain = 0
KST3 130629Z 16011KT M01/M11 A3026 RMK A01 T10121113  RH  046%=      5-min Rain = 0
KST3 130630Z 16011KT M01/M11 A3026 RMK A01 T10131113  RH  046%=      5-min Rain = 0
KST3 130631Z 16010KT M01/M11 A3026 RMK A01 T10131113  RH  046%=      5-min Rain = 0
KST3 130632Z 16011KT M01/M11 A3026 RMK A01 T10131113  RH  046%=      5-min Rain = 0
KST3 130633Z 16010KT M01/M11 A3026 RMK A01 T10131112  RH  047%=      5-min Rain = 0
KST3 130634Z 16011KT M01/M11 A3026 RMK A01 T10121112  RH  047%=      5-min Rain = 0
KST3 130635Z 16009KT M01/M11 A3026 RMK A01 T10131112  RH  047%=      5-min Rain = 0
KST3 130636Z 16010KT M01/M11 A3026 RMK A01 T10131113  RH  047%=      5-min Rain = 0
KST3 130637Z 16011KT M01/M11 A3026 RMK A01 T10131112  RH  047%=      5-min Rain = 0
KST3 130638Z 16010KT M01/M11 A3026 RMK A01 T10131111  RH  047%=      5-min Rain = 0
KST3 130639Z 16009KT M01/M11 A3026 RMK A01 T10121112  RH  047%=      5-min Rain = 0
KST3 130640Z 16010KT M01/M11 A3026 RMK A01 T10131113  RH  047%=      5-min Rain = 0
KST3 130641Z 16009KT M01/M11 A3026 RMK A01 T10141113  RH  047%=      5-min Rain = 0
KST3 130642Z 16010KT M01/M11 A3026 RMK A01 T10131112  RH  047%=      5-min Rain = 0
KST3 130643Z 16010KT M01/M11 A3026 RMK A01 T10141112  RH  047%=      5-min Rain = 0
KST3 130644Z 16010KT M01/M11 A3026 RMK A01 T10131112  RH  047%=      5-min Rain = 0
KST3 130645Z 16010KT M01/M11 A3026 RMK A01 T10131112  RH  047%=      5-min Rain = 0
KST3 130646Z 16011KT M01/M11 A3026 RMK A01 T10141113  RH  047%=      5-min Rain = 0
KST3 130647Z 16009KT M01/M11 A3026 RMK A01 T10141113  RH  047%=      5-min Rain = 0
KST3 130648Z 16010KT M02/M11 A3026 RMK A01 T10151113  RH  047%=      5-min Rain = 0
KST3 130649Z 16009KT M02/M11 A3026 RMK A01 T10151113  RH  047%=      5-min Rain = 0
KST3 130650Z 16009KT M02/M11 A3026 RMK A01 T10161113  RH  047%=      5-min Rain = 0
KST3 130651Z 16007KT M02/M11 A3026 RMK A01 T10161113  RH  048%=      5-min Rain = 0
KST3 130652Z 16009KT M02/M11 A3026 RMK A01 T10171114  RH  048%=      5-min Rain = 0
KST3 130653Z 16010KT M02/M11 A3026 RMK A01 T10171114  RH  048%=      5-min Rain = 0
KST3 130654Z 17010KT M02/M11 A3026 RMK A01 T10161113  RH  048%=      5-min Rain = 0
KST3 130655Z 17009KT M02/M11 A3026 RMK A01 T10161113  RH  048%=      5-min Rain = 0
KST3 130656Z 16008KT M02/M11 A3026 RMK A01 T10161113  RH  047%=      5-min Rain = 0
KST3 130657Z 16007KT M02/M11 A3026 RMK A01 T10171114  RH  047%=      5-min Rain = 0
KST3 130658Z 17008KT M02/M12 A3026 RMK A01 T10181115  RH  048%=      5-min Rain = 0
KST3 130659Z 17007KT M02/M11 A3026 RMK A01 T10181114  RH  048%=      5-min Rain = 0
KST3 130700Z 17007KT M02/M11 A3026 RMK A01 T10181114  RH  048%=      5-min Rain = 0
KST3 130701Z 17007KT M02/M11 A3026 RMK A01 T10181114  RH  048%=      5-min Rain = 0
KST3 130702Z 17008KT M02/M11 A3026 RMK A01 T10191114  RH  048%=      5-min Rain = 0
KST3 130703Z 16008KT M02/M11 A3026 RMK A01 T10191114  RH  048%=      5-min Rain = 0
KST3 130704Z 17007KT M02/M11 A3026 RMK A01 T10191114  RH  048%=      5-min Rain = 0
KST3 130705Z 17007KT M02/M11 A3026 RMK A01 T10191114  RH  048%=      5-min Rain = 0
KST3 130706Z 16008KT M02/M11 A3026 RMK A01 T10181113  RH  048%=      5-min Rain = 0
KST3 130707Z 16009KT M02/M11 A3026 RMK A01 T10191113  RH  048%=      5-min Rain = 0
KST3 130708Z 16007KT M02/M11 A3026 RMK A01 T10191113  RH  048%=      5-min Rain = 0
KST3 130709Z 16008KT M02/M11 A3026 RMK A01 T10191114  RH  048%=      5-min Rain = 0
KST3 130710Z 16009KT M02/M11 A3026 RMK A01 T10191113  RH  049%=      5-min Rain = 0
KST3 130711Z 16008KT M02/M11 A3026 RMK A01 T10191112  RH  049%=      5-min Rain = 0
KST3 130712Z 16007KT M02/M11 A3026 RMK A01 T10191113  RH  049%=      5-min Rain = 0
KST3 130713Z 16008KT M02/M11 A3026 RMK A01 T10191113  RH  049%=      5-min Rain = 0
KST3 130714Z 16008KT M02/M11 A3027 RMK A01 T10201113  RH  049%=      5-min Rain = 0
KST3 130715Z 16008KT M02/M11 A3027 RMK A01 T10201113  RH  049%=      5-min Rain = 0
KST3 130716Z 16008KT M02/M11 A3027 RMK A01 T10201113  RH  049%=      5-min Rain = 0
KST3 130717Z 16008KT M02/M11 A3027 RMK A01 T10211113  RH  049%=      5-min Rain = 0
KST3 130718Z 16007KT M02/M11 A3027 RMK A01 T10211113  RH  050%=      5-min Rain = 0
KST3 130719Z 16007KT M02/M11 A3027 RMK A01 T10221113  RH  050%=      5-min Rain = 0
KST3 130720Z 16007KT M02/M11 A3027 RMK A01 T10221113  RH  050%=      5-min Rain = 0
KST3 130721Z 16007KT M02/M11 A3027 RMK A01 T10241114  RH  050%=      5-min Rain = 0
KST3 130722Z 16008KT M03/M12 A3027 RMK A01 T10251115  RH  050%=      5-min Rain = 0
KST3 130723Z 16008KT M03/M11 A3027 RMK A01 T10261114  RH  051%=      5-min Rain = 0
KST3 130724Z 16009KT M03/M11 A3027 RMK A01 T10261114  RH  051%=      5-min Rain = 0
KST3 130725Z 16009KT M03/M11 A3027 RMK A01 T10251112  RH  051%=      5-min Rain = 0
KST3 130726Z 16008KT M03/M11 A3027 RMK A01 T10251112  RH  051%=      5-min Rain = 0
KST3 130727Z 16008KT M03/M11 A3027 RMK A01 T10251113  RH  051%=      5-min Rain = 0
KST3 130728Z 16008KT M03/M11 A3027 RMK A01 T10261113  RH  051%=      5-min Rain = 0
KST3 130729Z 16007KT M03/M11 A3027 RMK A01 T10261113  RH  051%=      5-min Rain = 0
KST3 130730Z 16007KT M03/M11 A3027 RMK A01 T10261113  RH  051%=      5-min Rain = 0
KST3 130731Z 16007KT M03/M11 A3027 RMK A01 T10271113  RH  051%=      5-min Rain = 0
KST3 130732Z 16005KT M03/M11 A3027 RMK A01 T10281114  RH  052%=      5-min Rain = 0
KST3 130733Z 16005KT M03/M11 A3027 RMK A01 T10291114  RH  052%=      5-min Rain = 0
KST3 130734Z 16005KT M03/M12 A3027 RMK A01 T10301115  RH  052%=      5-min Rain = 0
KST3 130735Z 16004KT M03/M11 A3027 RMK A01 T10301114  RH  052%=      5-min Rain = 0
KST3 130736Z 15004KT M03/M11 A3027 RMK A01 T10301114  RH  052%=      5-min Rain = 0
KST3 130737Z 14002KT M03/M11 A3027 RMK A01 T10301114  RH  052%=      5-min Rain = 0
KST3 130738Z 14002KT M03/M11 A3027 RMK A01 T10301114  RH  052%=      5-min Rain = 0
KST3 130739Z 13002KT M03/M12 A3027 RMK A01 T10311115  RH  052%=      5-min Rain = 0
KST3 130740Z 12002KT M03/M12 A3027 RMK A01 T10311115  RH  052%=      5-min Rain = 0
KST3 130741Z 12003KT M03/M11 A3027 RMK A01 T10311114  RH  052%=      5-min Rain = 0
KST3 130742Z 12003KT M03/M12 A3027 RMK A01 T10311115  RH  052%=      5-min Rain = 0
KST3 130743Z 12003KT M03/M12 A3027 RMK A01 T10321116  RH  052%=      5-min Rain = 0
KST3 130744Z 13003KT M03/M12 A3027 RMK A01 T10331116  RH  052%=      5-min Rain = 0
KST3 130745Z 13004KT M03/M12 A3027 RMK A01 T10331117  RH  052%=      5-min Rain = 0
KST3 130746Z 13003KT M03/M12 A3027 RMK A01 T10341117  RH  053%=      5-min Rain = 0
KST3 130747Z 13002KT M03/M12 A3027 RMK A01 T10341117  RH  053%=      5-min Rain = 0
KST3 130748Z 13003KT M04/M12 A3027 RMK A01 T10351117  RH  053%=      5-min Rain = 0
KST3 130749Z 14003KT M04/M12 A3027 RMK A01 T10351117  RH  053%=      5-min Rain = 0
KST3 130750Z 14004KT M04/M12 A3027 RMK A01 T10351116  RH  053%=      5-min Rain = 0
KST3 130751Z 14004KT M04/M12 A3027 RMK A01 T10351116  RH  054%=      5-min Rain = 0
KST3 130752Z 15004KT M04/M12 A3027 RMK A01 T10361116  RH  054%=      5-min Rain = 0
KST3 130753Z 15004KT M04/M12 A3027 RMK A01 T10361115  RH  054%=      5-min Rain = 0
KST3 130754Z 15005KT M04/M12 A3027 RMK A01 T10351115  RH  054%=      5-min Rain = 0
KST3 130755Z 16005KT M04/M12 A3027 RMK A01 T10371117  RH  054%=      5-min Rain = 0
KST3 130756Z 16006KT M04/M12 A3027 RMK A01 T10371116  RH  054%=      5-min Rain = 0
KST3 130757Z 16005KT M04/M12 A3027 RMK A01 T10371115  RH  055%=      5-min Rain = 0
KST3 130758Z 16006KT M04/M12 A3027 RMK A01 T10371115  RH  055%=      5-min Rain = 0
KST3 130759Z 16006KT M04/M12 A3027 RMK A01 T10371115  RH  055%=      5-min Rain = 0
KST3 130800Z 16006KT M04/M12 A3027 RMK A01 T10381115  RH  055%=      5-min Rain = 0
KST3 130801Z 15006KT M04/M11 A3027 RMK A01 T10381114  RH  055%=      5-min Rain = 0
KST3 130802Z 15007KT M04/M11 A3027 RMK A01 T10371113  RH  056%=      5-min Rain = 0
KST3 130803Z 15007KT M04/M11 A3027 RMK A01 T10371112  RH  056%=      5-min Rain = 0
KST3 130804Z 15007KT M04/M11 A3027 RMK A01 T10361113  RH  056%=      5-min Rain = 0
KST3 130805Z 15008KT M04/M11 A3027 RMK A01 T10371114  RH  056%=      5-min Rain = 0
KST3 130806Z 15008KT M04/M11 A3027 RMK A01 T10381113  RH  056%=      5-min Rain = 0
KST3 130807Z 16008KT M04/M11 A3027 RMK A01 T10381113  RH  056%=      5-min Rain = 0
KST3 130808Z 15008KT M04/M11 A3027 RMK A01 T10381112  RH  056%=      5-min Rain = 0
KST3 130809Z 15008KT M04/M11 A3027 RMK A01 T10381112  RH  056%=      5-min Rain = 0
KST3 130810Z 15008KT M04/M11 A3027 RMK A01 T10371111  RH  056%=      5-min Rain = 0
KST3 130811Z 15008KT M04/M11 A3027 RMK A01 T10381112  RH  056%=      5-min Rain = 0
KST3 130812Z 16008KT M04/M11 A3027 RMK A01 T10381112  RH  056%=      5-min Rain = 0
KST3 130813Z 16008KT M04/M11 A3027 RMK A01 T10381112  RH  057%=      5-min Rain = 0
KST3 130814Z 16008KT M04/M11 A3027 RMK A01 T10381111  RH  057%=      5-min Rain = 0
KST3 130815Z 16008KT M04/M11 A3027 RMK A01 T10381111  RH  057%=      5-min Rain = 0
KST3 130816Z 16008KT M04/M11 A3027 RMK A01 T10381110  RH  057%=      5-min Rain = 0
KST3 130817Z 16008KT M04/M11 A3027 RMK A01 T10381110  RH  057%=      5-min Rain = 0
KST3 130818Z 15008KT M04/M11 A3027 RMK A01 T10381110  RH  057%=      5-min Rain = 0
KST3 130819Z 16008KT M04/M11 A3027 RMK A01 T10381110  RH  057%=      5-min Rain = 0
KST3 130820Z 16007KT M04/M11 A3027 RMK A01 T10381109  RH  058%=      5-min Rain = 0
KST3 130821Z 16008KT M04/M11 A3027 RMK A01 T10381110  RH  057%=      5-min Rain = 0
KST3 130822Z 15007KT M04/M11 A3027 RMK A01 T10391111  RH  057%=      5-min Rain = 0
KST3 130823Z 16007KT M04/M11 A3027 RMK A01 T10391111  RH  058%=      5-min Rain = 0
KST3 130824Z 15007KT M04/M11 A3027 RMK A01 T10401111  RH  058%=      5-min Rain = 0
KST3 130825Z 15006KT M04/M11 A3027 RMK A01 T10411112  RH  058%=      5-min Rain = 0
KST3 130826Z 15007KT M04/M11 A3027 RMK A01 T10411113  RH  058%=      5-min Rain = 0
KST3 130827Z 15007KT M04/M11 A3027 RMK A01 T10421112  RH  058%=      5-min Rain = 0
KST3 130828Z 15007KT M04/M11 A3027 RMK A01 T10421112  RH  058%=      5-min Rain = 0
KST3 130829Z 15007KT M04/M11 A3027 RMK A01 T10421112  RH  058%=      5-min Rain = 0
KST3 130830Z 15008KT M04/M11 A3027 RMK A01 T10421112  RH  058%=      5-min Rain = 0
KST3 130831Z 15007KT M04/M11 A3027 RMK A01 T10431112  RH  058%=      5-min Rain = 0
KST3 130832Z 15007KT M04/M11 A3027 RMK A01 T10431112  RH  059%=      5-min Rain = 0
KST3 130833Z 15007KT M04/M11 A3027 RMK A01 T10431112  RH  059%=      5-min Rain = 0
KST3 130834Z 15008KT M04/M11 A3027 RMK A01 T10431111  RH  059%=      5-min Rain = 0
KST3 130835Z 15008KT M04/M11 A3027 RMK A01 T10431111  RH  059%=      5-min Rain = 0
KST3 130836Z 15007KT M04/M11 A3027 RMK A01 T10441112  RH  059%=      5-min Rain = 0
KST3 130837Z 15007KT M04/M11 A3027 RMK A01 T10441111  RH  059%=      5-min Rain = 0
KST3 130838Z 15008KT M04/M11 A3027 RMK A01 T10441112  RH  059%=      5-min Rain = 0
KST3 130839Z 15007KT M04/M11 A3027 RMK A01 T10441111  RH  060%=      5-min Rain = 0
KST3 130840Z 15007KT M04/M11 A3027 RMK A01 T10441111  RH  060%=      5-min Rain = 0
KST3 130841Z 15006KT M04/M11 A3027 RMK A01 T10441111  RH  060%=      5-min Rain = 0
KST3 130842Z 15006KT M05/M11 A3027 RMK A01 T10451110  RH  060%=      5-min Rain = 0
KST3 130843Z 15006KT M04/M11 A3027 RMK A01 T10441110  RH  060%=      5-min Rain = 0
KST3 130844Z 16006KT M04/M11 A3027 RMK A01 T10441109  RH  060%=      5-min Rain = 0
KST3 130845Z 16007KT M04/M11 A3027 RMK A01 T10441109  RH  061%=      5-min Rain = 0
KST3 130846Z 16007KT M04/M11 A3027 RMK A01 T10441109  RH  061%=      5-min Rain = 0
KST3 130847Z 16007KT M04/M11 A3027 RMK A01 T10431107  RH  061%=      5-min Rain = 0
KST3 130848Z 16007KT M04/M11 A3027 RMK A01 T10421107  RH  061%=      5-min Rain = 0
KST3 130849Z 16007KT M04/M11 A3027 RMK A01 T10411106  RH  061%=      5-min Rain = 0
KST3 130850Z 16007KT M04/M11 A3027 RMK A01 T10411105  RH  061%=      5-min Rain = 0
KST3 130851Z 16008KT M04/M10 A3026 RMK A01 T10401104  RH  061%=      5-min Rain = 0
KST3 130852Z 16008KT M04/M10 A3026 RMK A01 T10401104  RH  061%=      5-min Rain = 0
KST3 130853Z 16008KT M04/M10 A3026 RMK A01 T10391102  RH  061%=      5-min Rain = 0
KST3 130854Z 16009KT M04/M10 A3026 RMK A01 T10371101  RH  061%=      5-min Rain = 0
KST3 130855Z 16009KT M04/M10 A3026 RMK A01 T10361100  RH  061%=      5-min Rain = 0
KST3 130856Z 16008KT M04/M10 A3026 RMK A01 T10351100  RH  061%=      5-min Rain = 0
KST3 130857Z 16009KT M04/M10 A3026 RMK A01 T10351100  RH  061%=      5-min Rain = 0
KST3 130858Z 16008KT M04/M10 A3026 RMK A01 T10351100  RH  061%=      5-min Rain = 0
KST3 130859Z 16009KT M04/M10 A3026 RMK A01 T10351100  RH  061%=      5-min Rain = 0
KST3 130900Z 16008KT M04/M10 A3026 RMK A01 T10351100  RH  061%=      5-min Rain = 0
KST3 130901Z 16008KT M04/M10 A3026 RMK A01 T10351099  RH  061%=      5-min Rain = 0
KST3 130902Z 16008KT M03/M10 A3026 RMK A01 T10341099  RH  061%=      5-min Rain = 0
KST3 130903Z 16008KT M03/M10 A3026 RMK A01 T10341099  RH  061%=      5-min Rain = 0
KST3 130904Z 16007KT M04/M10 A3026 RMK A01 T10361101  RH  061%=      5-min Rain = 0
KST3 130905Z 16008KT M04/M10 A3026 RMK A01 T10371101  RH  061%=      5-min Rain = 0
KST3 130906Z 16008KT M04/M10 A3026 RMK A01 T10371100  RH  062%=      5-min Rain = 0
KST3 130907Z 15007KT M04/M10 A3026 RMK A01 T10361099  RH  062%=      5-min Rain = 0
KST3 130908Z 15007KT M04/M10 A3026 RMK A01 T10361099  RH  062%=      5-min Rain = 0
KST3 130909Z 15007KT M04/M10 A3026 RMK A01 T10371100  RH  061%=      5-min Rain = 0
KST3 130910Z 16008KT M04/M10 A3026 RMK A01 T10371100  RH  062%=      5-min Rain = 0
KST3 130911Z 16007KT M04/M10 A3026 RMK A01 T10381100  RH  062%=      5-min Rain = 0
KST3 130912Z 16007KT M04/M10 A3026 RMK A01 T10381100  RH  062%=      5-min Rain = 0
KST3 130913Z 16007KT M04/M10 A3026 RMK A01 T10381100  RH  062%=      5-min Rain = 0
KST3 130914Z 15006KT M04/M10 A3026 RMK A01 T10391100  RH  062%=      5-min Rain = 0
KST3 130915Z 15006KT M04/M10 A3026 RMK A01 T10391100  RH  063%=      5-min Rain = 0
KST3 130916Z 15005KT M04/M10 A3026 RMK A01 T10391100  RH  063%=      5-min Rain = 0
KST3 130917Z 15006KT M04/M10 A3026 RMK A01 T10401100  RH  063%=      5-min Rain = 0
KST3 130918Z 15006KT M04/M10 A3026 RMK A01 T10401100  RH  063%=      5-min Rain = 0
KST3 130919Z 15007KT M04/M10 A3026 RMK A01 T10401100  RH  063%=      5-min Rain = 0
KST3 130920Z 16007KT M04/M10 A3026 RMK A01 T10401099  RH  063%=      5-min Rain = 0
KST3 130921Z 16006KT M04/M10 A3026 RMK A01 T10411100  RH  063%=      5-min Rain = 0
KST3 130922Z 16007KT M04/M10 A3026 RMK A01 T10421101  RH  063%=      5-min Rain = 0
KST3 130923Z 16007KT M04/M10 A3026 RMK A01 T10421101  RH  064%=      5-min Rain = 0
KST3 130924Z 16008KT M04/M10 A3026 RMK A01 T10421101  RH  064%=      5-min Rain = 0
KST3 130925Z 16008KT M04/M10 A3026 RMK A01 T10421100  RH  064%=      5-min Rain = 0
KST3 130926Z 16008KT M04/M10 A3026 RMK A01 T10411098  RH  065%=      5-min Rain = 0
KST3 130927Z 16007KT M04/M10 A3026 RMK A01 T10411098  RH  064%=      5-min Rain = 0
KST3 130928Z 16007KT M04/M10 A3026 RMK A01 T10411098  RH  064%=      5-min Rain = 0
KST3 130929Z 16007KT M04/M10 A3026 RMK A01 T10411098  RH  064%=      5-min Rain = 0
KST3 130930Z 16007KT M04/M10 A3026 RMK A01 T10411099  RH  064%=      5-min Rain = 0
KST3 130931Z 16007KT M04/M10 A3026 RMK A01 T10421098  RH  065%=      5-min Rain = 0
KST3 130932Z 17007KT M04/M10 A3026 RMK A01 T10411098  RH  065%=      5-min Rain = 0
KST3 130933Z 16007KT M04/M10 A3026 RMK A01 T10421099  RH  065%=      5-min Rain = 0
KST3 130934Z 16006KT M04/M10 A3026 RMK A01 T10421098  RH  065%=      5-min Rain = 0
KST3 130935Z 16006KT M04/M10 A3026 RMK A01 T10421098  RH  065%=      5-min Rain = 0
KST3 130936Z 16006KT M04/M10 A3026 RMK A01 T10421098  RH  065%=      5-min Rain = 0
KST3 130937Z 16006KT M04/M10 A3026 RMK A01 T10411097  RH  065%=      5-min Rain = 0
KST3 130938Z 16006KT M04/M10 A3026 RMK A01 T10421099  RH  065%=      5-min Rain = 0
KST3 130939Z 16006KT M04/M10 A3026 RMK A01 T10431099  RH  065%=      5-min Rain = 0
KST3 130940Z 16007KT M04/M10 A3026 RMK A01 T10431099  RH  065%=      5-min Rain = 0
KST3 130941Z 16007KT M04/M10 A3026 RMK A01 T10431098  RH  065%=      5-min Rain = 0
KST3 130942Z 16007KT M04/M10 A3026 RMK A01 T10431099  RH  065%=      5-min Rain = 0
KST3 130943Z 17007KT M04/M10 A3026 RMK A01 T10431098  RH  066%=      5-min Rain = 0
KST3 130944Z 17007KT M04/M10 A3026 RMK A01 T10431098  RH  066%=      5-min Rain = 0
KST3 130945Z 17006KT M04/M10 A3026 RMK A01 T10431097  RH  066%=      5-min Rain = 0
KST3 130946Z 16007KT M04/M10 A3026 RMK A01 T10431098  RH  066%=      5-min Rain = 0
KST3 130947Z 16007KT M04/M10 A3026 RMK A01 T10431098  RH  066%=      5-min Rain = 0
KST3 130948Z 16007KT M04/M10 A3026 RMK A01 T10431098  RH  066%=      5-min Rain = 0
KST3 130949Z 16007KT M04/M10 A3026 RMK A01 T10431098  RH  066%=      5-min Rain = 0
KST3 130950Z 17007KT M04/M10 A3026 RMK A01 T10431098  RH  066%=      5-min Rain = 0
KST3 130951Z 17007KT M04/M10 A3026 RMK A01 T10441098  RH  066%=      5-min Rain = 0
KST3 130952Z 16006KT M04/M10 A3026 RMK A01 T10441098  RH  066%=      5-min Rain = 0
KST3 130953Z 16006KT M04/M10 A3026 RMK A01 T10441098  RH  066%=      5-min Rain = 0
KST3 130954Z 16006KT M04/M10 A3026 RMK A01 T10441098  RH  066%=      5-min Rain = 0
KST3 130955Z 16006KT M04/M10 A3026 RMK A01 T10441098  RH  066%=      5-min Rain = 0
KST3 130956Z 16006KT M04/M10 A3026 RMK A01 T10441098  RH  066%=      5-min Rain = 0
KST3 130957Z 16006KT M04/M10 A3026 RMK A01 T10441098  RH  066%=      5-min Rain = 0
KST3 130958Z 16006KT M05/M10 A3026 RMK A01 T10451099  RH  066%=      5-min Rain = 0
KST3 130959Z 16006KT M05/M10 A3026 RMK A01 T10451099  RH  066%=      5-min Rain = 0
KST3 131000Z 16006KT M05/M10 A3026 RMK A01 T10451099  RH  066%=      5-min Rain = 0
KST3 131001Z 16006KT M05/M10 A3026 RMK A01 T10461099  RH  066%=      5-min Rain = 0
KST3 131002Z 16005KT M05/M10 A3026 RMK A01 T10461099  RH  067%=      5-min Rain = 0
KST3 131003Z 16006KT M05/M10 A3026 RMK A01 T10461099  RH  067%=      5-min Rain = 0
KST3 131004Z 16006KT M05/M10 A3026 RMK A01 T10461099  RH  067%=      5-min Rain = 0
KST3 131005Z 16006KT M05/M10 A3026 RMK A01 T10471099  RH  067%=      5-min Rain = 0
KST3 131006Z 17006KT M05/M10 A3026 RMK A01 T10471099  RH  067%=      5-min Rain = 0
KST3 131007Z 17006KT M05/M10 A3026 RMK A01 T10471099  RH  067%=      5-min Rain = 0
KST3 131008Z 16006KT M05/M10 A3026 RMK A01 T10471098  RH  067%=      5-min Rain = 0
KST3 131009Z 16007KT M05/M10 A3026 RMK A01 T10471097  RH  068%=      5-min Rain = 0
KST3 131010Z 17007KT M05/M10 A3026 RMK A01 T10471097  RH  068%=      5-min Rain = 0
KST3 131011Z 17007KT M05/M10 A3026 RMK A01 T10471097  RH  068%=      5-min Rain = 0
KST3 131012Z 17007KT M05/M10 A3026 RMK A01 T10461096  RH  068%=      5-min Rain = 0
KST3 131013Z 17007KT M05/M10 A3026 RMK A01 T10451095  RH  068%=      5-min Rain = 0
KST3 131014Z 17007KT M05/M10 A3026 RMK A01 T10461096  RH  068%=      5-min Rain = 0
KST3 131015Z 17007KT M05/M10 A3026 RMK A01 T10461096  RH  068%=      5-min Rain = 0
KST3 131016Z 17007KT M05/M10 A3026 RMK A01 T10461096  RH  068%=      5-min Rain = 0
KST3 131017Z 17007KT M05/M10 A3026 RMK A01 T10461095  RH  068%=      5-min Rain = 0
KST3 131018Z 17007KT M05/M09 A3026 RMK A01 T10451094  RH  068%=      5-min Rain = 0
KST3 131019Z 17006KT M04/M09 A3025 RMK A01 T10441093  RH  069%=      5-min Rain = 0
KST3 131020Z 17006KT M04/M09 A3026 RMK A01 T10441094  RH  068%=      5-min Rain = 0
KST3 131021Z 17006KT M04/M09 A3026 RMK A01 T10441094  RH  068%=      5-min Rain = 0
KST3 131022Z 17006KT M04/M09 A3026 RMK A01 T10441093  RH  068%=      5-min Rain = 0
KST3 131023Z 18005KT M04/M09 A3026 RMK A01 T10441093  RH  069%=      5-min Rain = 0
KST3 131024Z 18005KT M04/M09 A3026 RMK A01 T10441093  RH  069%=      5-min Rain = 0
KST3 131025Z 18005KT M04/M09 A3026 RMK A01 T10441093  RH  069%=      5-min Rain = 0
KST3 131026Z 18005KT M04/M09 A3026 RMK A01 T10441094  RH  068%=      5-min Rain = 0
KST3 131027Z 18005KT M04/M09 A3026 RMK A01 T10441094  RH  068%=      5-min Rain = 0
KST3 131028Z 18004KT M04/M09 A3026 RMK A01 T10441094  RH  068%=      5-min Rain = 0
KST3 131029Z 18004KT M05/M10 A3026 RMK A01 T10451095  RH  068%=      5-min Rain = 0
KST3 131030Z 18004KT M05/M10 A3026 RMK A01 T10461096  RH  068%=      5-min Rain = 0
KST3 131031Z 19004KT M05/M10 A3026 RMK A01 T10471097  RH  068%=      5-min Rain = 0
KST3 131032Z 19003KT M05/M10 A3026 RMK A01 T10481098  RH  068%=      5-min Rain = 0
KST3 131033Z 19003KT M05/M10 A3026 RMK A01 T10501100  RH  068%=      5-min Rain = 0
KST3 131034Z 20004KT M05/M10 A3026 RMK A01 T10531104  RH  067%=      5-min Rain = 0
KST3 131035Z 20004KT M06/M10 A3026 RMK A01 T10551104  RH  068%=      5-min Rain = 0
KST3 131036Z 20004KT M05/M10 A3026 RMK A01 T10541102  RH  069%=      5-min Rain = 0
KST3 131037Z 20004KT M05/M10 A3026 RMK A01 T10541101  RH  070%=      5-min Rain = 0
KST3 131038Z 19005KT M05/M10 A3026 RMK A01 T10541100  RH  070%=      5-min Rain = 0
KST3 131039Z 19004KT M05/M10 A3026 RMK A01 T10531098  RH  070%=      5-min Rain = 0
KST3 131040Z 20004KT M05/M10 A3026 RMK A01 T10521098  RH  070%=      5-min Rain = 0
KST3 131041Z 19005KT M05/M10 A3026 RMK A01 T10521098  RH  070%=      5-min Rain = 0
KST3 131042Z 20005KT M05/M10 A3026 RMK A01 T10521099  RH  069%=      5-min Rain = 0
KST3 131043Z 20005KT M05/M10 A3026 RMK A01 T10521100  RH  069%=      5-min Rain = 0
KST3 131044Z 21005KT M05/M10 A3026 RMK A01 T10531100  RH  069%=      5-min Rain = 0
KST3 131045Z 20005KT M05/M10 A3026 RMK A01 T10531100  RH  070%=      5-min Rain = 0
KST3 131046Z 20005KT M05/M10 A3026 RMK A01 T10541101  RH  070%=      5-min Rain = 0
KST3 131047Z 20006KT M06/M10 A3026 RMK A01 T10551101  RH  070%=      5-min Rain = 0
KST3 131048Z 20006KT M06/M10 A3026 RMK A01 T10551101  RH  070%=      5-min Rain = 0
KST3 131049Z 20006KT M06/M10 A3026 RMK A01 T10551100  RH  071%=      5-min Rain = 0
KST3 131050Z 19007KT M05/M10 A3026 RMK A01 T10541098  RH  071%=      5-min Rain = 0
KST3 131051Z 19008KT M05/M10 A3026 RMK A01 T10531096  RH  072%=      5-min Rain = 0
KST3 131052Z 19007KT M05/M09 A3026 RMK A01 T10511092  RH  073%=      5-min Rain = 0
KST3 131053Z 20007KT M05/M09 A3026 RMK A01 T10491091  RH  072%=      5-min Rain = 0
KST3 131054Z 20006KT M05/M09 A3026 RMK A01 T10491092  RH  072%=      5-min Rain = 0
KST3 131055Z 20007KT M05/M10 A3026 RMK A01 T10501095  RH  071%=      5-min Rain = 0
KST3 131056Z 20007KT M05/M10 A3026 RMK A01 T10521097  RH  071%=      5-min Rain = 0
KST3 131057Z 20007KT M05/M10 A3026 RMK A01 T10531097  RH  071%=      5-min Rain = 0
KST3 131058Z 20006KT M05/M10 A3026 RMK A01 T10541097  RH  072%=      5-min Rain = 0
KST3 131059Z 20006KT M05/M10 A3026 RMK A01 T10541097  RH  072%=      5-min Rain = 0
KST3 131100Z 20006KT M06/M10 A3026 RMK A01 T10551096  RH  073%=      5-min Rain = 0
KST3 131101Z 20007KT M05/M10 A3026 RMK A01 T10541095  RH  073%=      5-min Rain = 0
KST3 131102Z 20006KT M06/M10 A3026 RMK A01 T10551095  RH  073%=      5-min Rain = 0
KST3 131103Z 20006KT M06/M10 A3026 RMK A01 T10551095  RH  073%=      5-min Rain = 0
KST3 131104Z 21006KT M06/M10 A3026 RMK A01 T10551095  RH  073%=      5-min Rain = 0
KST3 131105Z 21006KT M06/M10 A3027 RMK A01 T10571097  RH  073%=      5-min Rain = 0
KST3 131106Z 21006KT M06/M10 A3026 RMK A01 T10581099  RH  073%=      5-min Rain = 0
KST3 131107Z 21006KT M06/M10 A3026 RMK A01 T10591099  RH  074%=      5-min Rain = 0
KST3 131108Z 20006KT M06/M10 A3026 RMK A01 T10601098  RH  074%=      5-min Rain = 0
KST3 131109Z 20007KT M06/M10 A3026 RMK A01 T10601097  RH  075%=      5-min Rain = 0
KST3 131110Z 20007KT M06/M10 A3026 RMK A01 T10591095  RH  076%=      5-min Rain = 0
KST3 131111Z 20006KT M06/M09 A3026 RMK A01 T10571093  RH  076%=      5-min Rain = 0
KST3 131112Z 20007KT M06/M09 A3026 RMK A01 T10561092  RH  076%=      5-min Rain = 0
KST3 131113Z 20007KT M06/M09 A3026 RMK A01 T10551092  RH  075%=      5-min Rain = 0
KST3 131114Z 20006KT M06/M09 A3026 RMK A01 T10551093  RH  075%=      5-min Rain = 0
KST3 131115Z 20007KT M06/M09 A3026 RMK A01 T10551093  RH  075%=      5-min Rain = 0
KST3 131116Z 20007KT M06/M09 A3026 RMK A01 T10551093  RH  075%=      5-min Rain = 0
KST3 131117Z 20007KT M06/M09 A3026 RMK A01 T10551092  RH  075%=      5-min Rain = 0
KST3 131118Z 20007KT M06/M09 A3026 RMK A01 T10551093  RH  075%=      5-min Rain = 0
KST3 131119Z 20007KT M06/M09 A3026 RMK A01 T10551093  RH  074%=      5-min Rain = 0
KST3 131120Z 20007KT M06/M09 A3026 RMK A01 T10551094  RH  074%=      5-min Rain = 0
KST3 131121Z 19007KT M06/M09 A3026 RMK A01 T10561094  RH  074%=      5-min Rain = 0
KST3 131122Z 20007KT M06/M09 A3026 RMK A01 T10561094  RH  075%=      5-min Rain = 0
KST3 131123Z 20007KT M06/M09 A3026 RMK A01 T10561094  RH  075%=      5-min Rain = 0
KST3 131124Z 20007KT M06/M09 A3026 RMK A01 T10571094  RH  075%=      5-min Rain = 0
KST3 131125Z 20007KT M06/M10 A3026 RMK A01 T10571095  RH  075%=      5-min Rain = 0
KST3 131126Z 20006KT M06/M10 A3026 RMK A01 T10581095  RH  075%=      5-min Rain = 0
KST3 131127Z 20006KT M06/M10 A3026 RMK A01 T10581095  RH  075%=      5-min Rain = 0
KST3 131128Z 20006KT M06/M10 A3026 RMK A01 T10591096  RH  075%=      5-min Rain = 0
KST3 131129Z 20006KT M06/M10 A3026 RMK A01 T10591096  RH  075%=      5-min Rain = 0
KST3 131130Z 20006KT M06/M10 A3026 RMK A01 T10601096  RH  075%=      5-min Rain = 0
KST3 131131Z 20006KT M06/M10 A3026 RMK A01 T10601097  RH  076%=      5-min Rain = 0
KST3 131132Z 20006KT M06/M10 A3026 RMK A01 T10611097  RH  076%=      5-min Rain = 0
KST3 131133Z 20006KT M06/M10 A3026 RMK A01 T10611096  RH  076%=      5-min Rain = 0
KST3 131134Z 20006KT M06/M10 A3026 RMK A01 T10611097  RH  076%=      5-min Rain = 0
KST3 131135Z 20006KT M06/M10 A3026 RMK A01 T10611097  RH  076%=      5-min Rain = 0
KST3 131136Z 20006KT M06/M10 A3026 RMK A01 T10611097  RH  076%=      5-min Rain = 0
KST3 131137Z 20006KT M06/M10 A3026 RMK A01 T10621098  RH  076%=      5-min Rain = 0
KST3 131138Z 20006KT M06/M10 A3026 RMK A01 T10621098  RH  076%=      5-min Rain = 0
KST3 131139Z 20005KT M06/M10 A3026 RMK A01 T10631099  RH  076%=      5-min Rain = 0
KST3 131140Z 20005KT M06/M10 A3026 RMK A01 T10641099  RH  076%=      5-min Rain = 0
KST3 131141Z 20006KT M07/M10 A3026 RMK A01 T10651100  RH  076%=      5-min Rain = 0
KST3 131142Z 21006KT M07/M10 A3026 RMK A01 T10651100  RH  076%=      5-min Rain = 0
KST3 131143Z 20006KT M07/M10 A3026 RMK A01 T10661102  RH  076%=      5-min Rain = 0
KST3 131144Z 20006KT M07/M10 A3026 RMK A01 T10671102  RH  076%=      5-min Rain = 0
KST3 131145Z 20006KT M07/M10 A3026 RMK A01 T10671101  RH  077%=      5-min Rain = 0
KST3 131146Z 20007KT M07/M10 A3026 RMK A01 T10671100  RH  077%=      5-min Rain = 0
KST3 131147Z 18006KT M07/M10 A3026 RMK A01 T10671100  RH  077%=      5-min Rain = 0
KST3 131148Z 19007KT M07/M10 A3026 RMK A01 T10671100  RH  077%=      5-min Rain = 0
KST3 131149Z 19007KT M07/M10 A3025 RMK A01 T10651098  RH  078%=      5-min Rain = 0
KST3 131150Z 19007KT M06/M10 A3025 RMK A01 T10641096  RH  078%=      5-min Rain = 0
KST3 131151Z 19007KT M06/M09 A3025 RMK A01 T10621094  RH  078%=      5-min Rain = 0
KST3 131152Z 19007KT M06/M09 A3026 RMK A01 T10601093  RH  078%=      5-min Rain = 0
KST3 131153Z 19007KT M06/M09 A3026 RMK A01 T10581092  RH  077%=      5-min Rain = 0
KST3 131154Z 20007KT M06/M09 A3026 RMK A01 T10581092  RH  076%=      5-min Rain = 0
KST3 131155Z 20007KT M06/M09 A3025 RMK A01 T10581094  RH  076%=      5-min Rain = 0
KST3 131156Z 20007KT M06/M10 A3025 RMK A01 T10581095  RH  075%=      5-min Rain = 0
KST3 131157Z 20007KT M06/M10 A3025 RMK A01 T10601098  RH  075%=      5-min Rain = 0
KST3 131158Z 20007KT M06/M10 A3026 RMK A01 T10631101  RH  074%=      5-min Rain = 0
KST3 131159Z 21006KT M07/M10 A3026 RMK A01 T10651103  RH  075%=      5-min Rain = 0
KST3 131200Z 21006KT M07/M10 A3026 RMK A01 T10671104  RH  075%=      5-min Rain = 0
KST3 131201Z 21006KT M07/M11 A3026 RMK A01 T10701106  RH  075%=      5-min Rain = 0
KST3 131202Z 21006KT M07/M11 A3026 RMK A01 T10711106  RH  076%=      5-min Rain = 0
KST3 131203Z 21006KT M07/M11 A3026 RMK A01 T10711105  RH  077%=      5-min Rain = 0
KST3 131204Z 21006KT M07/M10 A3026 RMK A01 T10721103  RH  078%=      5-min Rain = 0
KST3 131205Z 21006KT M07/M10 A3026 RMK A01 T10711102  RH  079%=      5-min Rain = 0
KST3 131206Z 21007KT M07/M10 A3026 RMK A01 T10701100  RH  079%=      5-min Rain = 0
KST3 131207Z 21006KT M07/M10 A3026 RMK A01 T10701100  RH  079%=      5-min Rain = 0
KST3 131208Z 22006KT M07/M10 A3026 RMK A01 T10691101  RH  079%=      5-min Rain = 0
KST3 131209Z 22006KT M07/M10 A3026 RMK A01 T10701101  RH  078%=      5-min Rain = 0
KST3 131210Z 22006KT M07/M10 A3026 RMK A01 T10701102  RH  078%=      5-min Rain = 0
KST3 131211Z 21006KT M07/M10 A3026 RMK A01 T10711102  RH  078%=      5-min Rain = 0
KST3 131212Z 22006KT M07/M10 A3026 RMK A01 T10711102  RH  079%=      5-min Rain = 0
KST3 131213Z 22006KT M07/M10 A3026 RMK A01 T10711101  RH  079%=      5-min Rain = 0
KST3 131214Z 22006KT M07/M10 A3026 RMK A01 T10711100  RH  080%=      5-min Rain = 0
KST3 131215Z 22006KT M07/M10 A3026 RMK A01 T10691098  RH  080%=      5-min Rain = 0
KST3 131216Z 22007KT M07/M10 A3026 RMK A01 T10691098  RH  080%=      5-min Rain = 0
KST3 131217Z 22007KT M07/M10 A3026 RMK A01 T10691098  RH  080%=      5-min Rain = 0
KST3 131218Z 22007KT M07/M10 A3026 RMK A01 T10691099  RH  079%=      5-min Rain = 0
KST3 131219Z 22007KT M07/M10 A3026 RMK A01 T10691099  RH  079%=      5-min Rain = 0
KST3 131220Z 21007KT M07/M10 A3026 RMK A01 T10691099  RH  079%=      5-min Rain = 0
KST3 131221Z 21007KT M07/M10 A3026 RMK A01 T10691099  RH  080%=      5-min Rain = 0
KST3 131222Z 21008KT M07/M10 A3026 RMK A01 T10691098  RH  080%=      5-min Rain = 0
KST3 131223Z 21007KT M07/M10 A3026 RMK A01 T10671096  RH  080%=      5-min Rain = 0
KST3 131224Z 22007KT M07/M10 A3026 RMK A01 T10671095  RH  080%=      5-min Rain = 0
KST3 131225Z 22007KT M07/M10 A3026 RMK A01 T10671096  RH  080%=      5-min Rain = 0
KST3 131226Z 22007KT M07/M10 A3026 RMK A01 T10661095  RH  080%=      5-min Rain = 0
KST3 131227Z 22007KT M07/M10 A3026 RMK A01 T10661095  RH  080%=      5-min Rain = 0
KST3 131228Z 22006KT M07/M10 A3026 RMK A01 T10661095  RH  080%=      5-min Rain = 0
KST3 131229Z 22006KT M07/M10 A3026 RMK A01 T10661095  RH  080%=      5-min Rain = 0
KST3 131230Z 22006KT M07/M10 A3026 RMK A01 T10661096  RH  080%=      5-min Rain = 0
KST3 131231Z 21006KT M07/M10 A3026 RMK A01 T10671097  RH  080%=      5-min Rain = 0
KST3 131232Z 22006KT M07/M10 A3027 RMK A01 T10681098  RH  079%=      5-min Rain = 0
KST3 131233Z 22006KT M07/M10 A3027 RMK A01 T10691098  RH  080%=      5-min Rain = 0
KST3 131234Z 22006KT M07/M10 A3027 RMK A01 T10691098  RH  080%=      5-min Rain = 0
KST3 131235Z 22006KT M07/M10 A3027 RMK A01 T10691097  RH  080%=      5-min Rain = 0
KST3 131236Z 21005KT M07/M10 A3027 RMK A01 T10691098  RH  080%=      5-min Rain = 0
KST3 131237Z 20005KT M07/M10 A3027 RMK A01 T10701098  RH  080%=      5-min Rain = 0
KST3 131238Z 20005KT M07/M10 A3027 RMK A01 T10701098  RH  080%=      5-min Rain = 0
KST3 131239Z 21005KT M07/M10 A3027 RMK A01 T10701099  RH  080%=      5-min Rain = 0
KST3 131240Z 20005KT M07/M10 A3027 RMK A01 T10701098  RH  081%=      5-min Rain = 0
KST3 131241Z 21005KT M07/M10 A3027 RMK A01 T10701098  RH  081%=      5-min Rain = 0
KST3 131242Z 20005KT M07/M10 A3027 RMK A01 T10701098  RH  081%=      5-min Rain = 0
KST3 131243Z 21004KT M07/M10 A3027 RMK A01 T10701097  RH  081%=      5-min Rain = 0
KST3 131244Z 21004KT M07/M10 A3027 RMK A01 T10701098  RH  081%=      5-min Rain = 0
KST3 131245Z 21005KT M07/M10 A3027 RMK A01 T10701098  RH  080%=      5-min Rain = 0
KST3 131246Z 21005KT M07/M10 A3027 RMK A01 T10701098  RH  081%=      5-min Rain = 0
KST3 131247Z 21005KT M07/M10 A3027 RMK A01 T10701097  RH  081%=      5-min Rain = 0
KST3 131248Z 21005KT M07/M10 A3027 RMK A01 T10701097  RH  081%=      5-min Rain = 0
KST3 131249Z 21005KT M07/M10 A3027 RMK A01 T10691096  RH  081%=      5-min Rain = 0
KST3 131250Z 21005KT M07/M10 A3027 RMK A01 T10681096  RH  081%=      5-min Rain = 0
KST3 131251Z 21005KT M07/M10 A3027 RMK A01 T10681096  RH  080%=      5-min Rain = 0
KST3 131252Z 21004KT M07/M10 A3027 RMK A01 T10671096  RH  080%=      5-min Rain = 0
KST3 131253Z 21005KT M07/M10 A3027 RMK A01 T10671095  RH  080%=      5-min Rain = 0
KST3 131254Z 21005KT M07/M10 A3027 RMK A01 T10661095  RH  080%=      5-min Rain = 0
KST3 131255Z 22006KT M07/M10 A3027 RMK A01 T10661096  RH  079%=      5-min Rain = 0
KST3 131256Z 22006KT M07/M10 A3027 RMK A01 T10661096  RH  079%=      5-min Rain = 0
KST3 131257Z 22006KT M07/M10 A3027 RMK A01 T10661096  RH  079%=      5-min Rain = 0
KST3 131258Z 22006KT M07/M10 A3027 RMK A01 T10671098  RH  079%=      5-min Rain = 0
KST3 131259Z 21006KT M07/M10 A3027 RMK A01 T10671098  RH  079%=      5-min Rain = 0
KST3 131300Z 21006KT M07/M10 A3027 RMK A01 T10681099  RH  079%=      5-min Rain = 0
KST3 131301Z 21006KT M07/M10 A3027 RMK A01 T10681099  RH  079%=      5-min Rain = 0
KST3 131302Z 22005KT M07/M10 A3027 RMK A01 T10681098  RH  080%=      5-min Rain = 0
KST3 131303Z 22006KT M07/M10 A3027 RMK A01 T10671097  RH  080%=      5-min Rain = 0
KST3 131304Z 22006KT M07/M10 A3027 RMK A01 T10671097  RH  079%=      5-min Rain = 0
KST3 131305Z 22006KT M07/M10 A3027 RMK A01 T10681099  RH  079%=      5-min Rain = 0
KST3 131306Z 23006KT M07/M10 A3027 RMK A01 T10691100  RH  078%=      5-min Rain = 0
KST3 131307Z 23006KT M07/M10 A3027 RMK A01 T10691100  RH  078%=      5-min Rain = 0
KST3 131308Z 23006KT M07/M10 A3027 RMK A01 T10701101  RH  079%=      5-min Rain = 0
KST3 131309Z 24006KT M07/M10 A3027 RMK A01 T10711102  RH  079%=      5-min Rain = 0
KST3 131310Z 24006KT M07/M10 A3027 RMK A01 T10711102  RH  079%=      5-min Rain = 0
KST3 131311Z 23007KT M07/M10 A3027 RMK A01 T10721102  RH  079%=      5-min Rain = 0
KST3 131312Z 23006KT M07/M10 A3027 RMK A01 T10731103  RH  079%=      5-min Rain = 0
KST3 131313Z 23006KT M07/M10 A3027 RMK A01 T10731103  RH  079%=      5-min Rain = 0
KST3 131314Z 23006KT M07/M10 A3027 RMK A01 T10731103  RH  079%=      5-min Rain = 0
KST3 131315Z 23006KT M07/M10 A3027 RMK A01 T10741103  RH  080%=      5-min Rain = 0
KST3 131316Z 23006KT M07/M10 A3027 RMK A01 T10741103  RH  080%=      5-min Rain = 0
KST3 131317Z 23007KT M07/M10 A3027 RMK A01 T10741103  RH  080%=      5-min Rain = 0
KST3 131318Z 24007KT M07/M10 A3027 RMK A01 T10741103  RH  080%=      5-min Rain = 0
KST3 131319Z 23008KT M07/M10 A3027 RMK A01 T10741102  RH  080%=      5-min Rain = 0
KST3 131320Z 23009KT M07/M10 A3027 RMK A01 T10721099  RH  081%=      5-min Rain = 0
KST3 131321Z 23009KT M07/M10 A3027 RMK A01 T10701097  RH  081%=      5-min Rain = 0
KST3 131322Z 22008KT M07/M10 A3027 RMK A01 T10671095  RH  081%=      5-min Rain = 0
KST3 131323Z 22009KT M07/M10 A3027 RMK A01 T10651095  RH  080%=      5-min Rain = 0
KST3 131324Z 22009KT M06/M10 A3027 RMK A01 T10641096  RH  079%=      5-min Rain = 0
KST3 131325Z 22008KT M06/M10 A3027 RMK A01 T10641096  RH  078%=      5-min Rain = 0
KST3 131326Z 22008KT M06/M10 A3027 RMK A01 T10641096  RH  078%=      5-min Rain = 0
KST3 131327Z 23008KT M06/M10 A3027 RMK A01 T10631096  RH  078%=      5-min Rain = 0
KST3 131328Z 23008KT M06/M10 A3027 RMK A01 T10621095  RH  078%=      5-min Rain = 0
KST3 131329Z 23009KT M06/M09 A3027 RMK A01 T10611094  RH  077%=      5-min Rain = 0
KST3 131330Z 23009KT M06/M09 A3027 RMK A01 T10601094  RH  077%=      5-min Rain = 0
KST3 131331Z 23009KT M06/M09 A3027 RMK A01 T10601094  RH  077%=      5-min Rain = 0
KST3 131332Z 23009KT M06/M09 A3027 RMK A01 T10591094  RH  076%=      5-min Rain = 0
KST3 131333Z 23009KT M06/M09 A3027 RMK A01 T10591094  RH  076%=      5-min Rain = 0
KST3 131334Z 23009KT M06/M09 A3027 RMK A01 T10581094  RH  076%=      5-min Rain = 0
KST3 131335Z 24009KT M06/M09 A3027 RMK A01 T10581094  RH  076%=      5-min Rain = 0
KST3 131336Z 24009KT M06/M09 A3027 RMK A01 T10581094  RH  076%=      5-min Rain = 0
KST3 131337Z 24009KT M06/M10 A3027 RMK A01 T10581095  RH  076%=      5-min Rain = 0
KST3 131338Z 24009KT M06/M10 A3027 RMK A01 T10581095  RH  075%=      5-min Rain = 0
KST3 131339Z 24009KT M06/M09 A3027 RMK A01 T10581094  RH  076%=      5-min Rain = 0
KST3 131340Z 24009KT M06/M09 A3028 RMK A01 T10581094  RH  076%=      5-min Rain = 0
KST3 131341Z 24009KT M06/M09 A3027 RMK A01 T10581094  RH  076%=      5-min Rain = 0
KST3 131342Z 24009KT M06/M09 A3027 RMK A01 T10581094  RH  076%=      5-min Rain = 0
KST3 131343Z 24009KT M06/M09 A3027 RMK A01 T10571094  RH  075%=      5-min Rain = 0
KST3 131344Z 24009KT M06/M09 A3027 RMK A01 T10571094  RH  075%=      5-min Rain = 0
KST3 131345Z 24010KT M06/M09 A3028 RMK A01 T10571094  RH  075%=      5-min Rain = 0
KST3 131346Z 25010KT M06/M09 A3028 RMK A01 T10561093  RH  075%=      5-min Rain = 0
KST3 131347Z 25010KT M06/M09 A3028 RMK A01 T10551092  RH  075%=      5-min Rain = 0
KST3 131348Z 24010KT M05/M09 A3028 RMK A01 T10541092  RH  075%=      5-min Rain = 0
KST3 131349Z 24010KT M05/M09 A3028 RMK A01 T10541092  RH  074%=      5-min Rain = 0
KST3 131350Z 24010KT M05/M09 A3028 RMK A01 T10531092  RH  074%=      5-min Rain = 0
KST3 131351Z 24010KT M05/M09 A3028 RMK A01 T10521092  RH  074%=      5-min Rain = 0
KST3 131352Z 24010KT M05/M09 A3028 RMK A01 T10521092  RH  074%=      5-min Rain = 0
KST3 131353Z 24010KT M05/M09 A3028 RMK A01 T10511092  RH  073%=      5-min Rain = 0
KST3 131354Z 25010KT M05/M09 A3028 RMK A01 T10511092  RH  073%=      5-min Rain = 0
KST3 131355Z 24010KT M05/M09 A3028 RMK A01 T10501092  RH  073%=      5-min Rain = 0
KST3 131356Z 24010KT M05/M09 A3028 RMK A01 T10501091  RH  073%=      5-min Rain = 0
KST3 131357Z 24009KT M05/M09 A3028 RMK A01 T10491091  RH  072%=      5-min Rain = 0
KST3 131358Z 24010KT M05/M09 A3028 RMK A01 T10481091  RH  072%=      5-min Rain = 0
KST3 131359Z 24009KT M05/M09 A3028 RMK A01 T10471091  RH  071%=      5-min Rain = 0
KST3 131400Z 24009KT M05/M09 A3028 RMK A01 T10451091  RH  071%=      5-min Rain = 0
KST3 131401Z 24009KT M05/M09 A3028 RMK A01 T10451091  RH  070%=      5-min Rain = 0
KST3 131402Z 24009KT M04/M09 A3028 RMK A01 T10441091  RH  070%=      5-min Rain = 0
KST3 131403Z 24010KT M04/M09 A3028 RMK A01 T10431091  RH  069%=      5-min Rain = 0
KST3 131404Z 24010KT M04/M09 A3028 RMK A01 T10431092  RH  069%=      5-min Rain = 0
KST3 131405Z 24010KT M04/M09 A3028 RMK A01 T10421092  RH  068%=      5-min Rain = 0
KST3 131406Z 25009KT M04/M09 A3028 RMK A01 T10421092  RH  068%=      5-min Rain = 0
KST3 131407Z 25010KT M04/M09 A3028 RMK A01 T10421092  RH  068%=      5-min Rain = 0
KST3 131408Z 25010KT M04/M09 A3028 RMK A01 T10411092  RH  068%=      5-min Rain = 0
KST3 131409Z 25010KT M04/M09 A3028 RMK A01 T10411093  RH  067%=      5-min Rain = 0
KST3 131410Z 24010KT M04/M09 A3027 RMK A01 T10411093  RH  067%=      5-min Rain = 0
KST3 131411Z 24011KT M04/M09 A3027 RMK A01 T10411093  RH  067%=      5-min Rain = 0
KST3 131412Z 24010KT M04/M09 A3028 RMK A01 T10411094  RH  067%=      5-min Rain = 0
KST3 131413Z 24010KT M04/M09 A3028 RMK A01 T10411094  RH  066%=      5-min Rain = 0
KST3 131414Z 24009KT M04/M09 A3028 RMK A01 T10401094  RH  066%=      5-min Rain = 0
KST3 131415Z 24009KT M04/M09 A3028 RMK A01 T10401094  RH  066%=      5-min Rain = 0
KST3 131416Z 24009KT M04/M09 A3028 RMK A01 T10401094  RH  066%=      5-min Rain = 0
KST3 131417Z 23010KT M04/M09 A3028 RMK A01 T10401094  RH  066%=      5-min Rain = 0
KST3 131418Z 23010KT M04/M09 A3028 RMK A01 T10391094  RH  066%=      5-min Rain = 0
KST3 131419Z 23011KT M04/M09 A3028 RMK A01 T10391094  RH  065%=      5-min Rain = 0
KST3 131420Z 23010KT M04/M09 A3028 RMK A01 T10381094  RH  065%=      5-min Rain = 0
KST3 131421Z 23010KT M04/M09 A3028 RMK A01 T10381094  RH  065%=      5-min Rain = 0
KST3 131422Z 22011KT M04/M10 A3028 RMK A01 T10381095  RH  065%=      5-min Rain = 0
KST3 131423Z 22010KT M04/M10 A3029 RMK A01 T10381095  RH  065%=      5-min Rain = 0
KST3 131424Z 22010KT M04/M10 A3029 RMK A01 T10381095  RH  065%=      5-min Rain = 0
KST3 131425Z 22010KT M04/M10 A3029 RMK A01 T10391095  RH  065%=      5-min Rain = 0
KST3 131426Z 22010KT M04/M10 A3028 RMK A01 T10391095  RH  065%=      5-min Rain = 0
KST3 131427Z 22011KT M04/M09 A3028 RMK A01 T10381094  RH  065%=      5-min Rain = 0
KST3 131428Z 22011KT M04/M09 A3028 RMK A01 T10381094  RH  065%=      5-min Rain = 0
KST3 131429Z 23011KT M04/M09 A3028 RMK A01 T10381094  RH  065%=      5-min Rain = 0
KST3 131430Z 23011KT M04/M09 A3029 RMK A01 T10371094  RH  065%=      5-min Rain = 0
KST3 131431Z 23012KT M04/M09 A3029 RMK A01 T10371094  RH  065%=      5-min Rain = 0
KST3 131432Z 23010KT M04/M09 A3029 RMK A01 T10371094  RH  065%=      5-min Rain = 0
KST3 131433Z 23011KT M04/M09 A3029 RMK A01 T10371094  RH  065%=      5-min Rain = 0
KST3 131434Z 23011KT M04/M09 A3029 RMK A01 T10371094  RH  065%=      5-min Rain = 0
KST3 131435Z 23010KT M04/M09 A3029 RMK A01 T10371094  RH  065%=      5-min Rain = 0
KST3 131436Z 22011KT M04/M09 A3029 RMK A01 T10371094  RH  065%=      5-min Rain = 0
KST3 131437Z 22010KT M04/M09 A3029 RMK A01 T10371094  RH  065%=      5-min Rain = 0
KST3 131438Z 22010KT M04/M10 A3029 RMK A01 T10381095  RH  065%=      5-min Rain = 0
KST3 131439Z 22010KT M04/M10 A3029 RMK A01 T10381095  RH  065%=      5-min Rain = 0
KST3 131440Z 22010KT M04/M10 A3029 RMK A01 T10381095  RH  065%=      5-min Rain = 0
KST3 131441Z 23011KT M04/M10 A3029 RMK A01 T10381095  RH  065%=      5-min Rain = 0
KST3 131442Z 22011KT M04/M09 A3029 RMK A01 T10371094  RH  064%=      5-min Rain = 0
KST3 131443Z 23011KT M04/M09 A3029 RMK A01 T10361093  RH  064%=      5-min Rain = 0
KST3 131444Z 22012KT M03/M09 A3029 RMK A01 T10341092  RH  064%=      5-min Rain = 0
KST3 131445Z 23010KT M03/M09 A3029 RMK A01 T10331092  RH  064%=      5-min Rain = 0
KST3 131446Z 23012KT M03/M09 A3029 RMK A01 T10321092  RH  063%=      5-min Rain = 0
KST3 131447Z 22011KT M03/M09 A3029 RMK A01 T10321093  RH  063%=      5-min Rain = 0
KST3 131448Z 22011KT M03/M09 A3029 RMK A01 T10321093  RH  063%=      5-min Rain = 0
KST3 131449Z 22013KT M03/M09 A3029 RMK A01 T10321093  RH  063%=      5-min Rain = 0
KST3 131450Z 22013KT M03/M09 A3029 RMK A01 T10321093  RH  062%=      5-min Rain = 0
KST3 131451Z 22012KT M03/M09 A3029 RMK A01 T10321093  RH  063%=      5-min Rain = 0
KST3 131452Z 22013KT M03/M09 A3029 RMK A01 T10311092  RH  063%=      5-min Rain = 0
KST3 131453Z 22012KT M03/M09 A3029 RMK A01 T10291091  RH  062%=      5-min Rain = 0
KST3 131454Z 22011KT M03/M09 A3029 RMK A01 T10281090  RH  062%=      5-min Rain = 0
KST3 131455Z 22010KT M03/M09 A3029 RMK A01 T10261090  RH  062%=      5-min Rain = 0
KST3 131456Z 22013KT M02/M09 A3029 RMK A01 T10241088  RH  061%=      5-min Rain = 0
KST3 131457Z 22013KT M02/M09 A3029 RMK A01 T10231088  RH  061%=      5-min Rain = 0
KST3 131458Z 22013KT M02/M09 A3029 RMK A01 T10221088  RH  061%=      5-min Rain = 0
KST3 131459Z 22014KT M02/M09 A3029 RMK A01 T10221088  RH  060%=      5-min Rain = 0
KST3 131500Z 22012KT M02/M09 A3029 RMK A01 T10211088  RH  060%=      5-min Rain = 0
KST3 131501Z 22012KT M02/M09 A3029 RMK A01 T10201087  RH  060%=      5-min Rain = 0
KST3 131502Z 22013KT M02/M09 A3029 RMK A01 T10181086  RH  060%=      5-min Rain = 0
KST3 131503Z 22012KT M02/M09 A3029 RMK A01 T10181086  RH  060%=      5-min Rain = 0
KST3 131504Z 22012KT M02/M09 A3029 RMK A01 T10171085  RH  060%=      5-min Rain = 0
KST3 131505Z 21012KT M02/M09 A3029 RMK A01 T10161085  RH  059%=      5-min Rain = 0
KST3 131506Z 22013KT M02/M09 A3029 RMK A01 T10161085  RH  059%=      5-min Rain = 0
KST3 131507Z 21014KT M02/M08 A3029 RMK A01 T10151084  RH  060%=      5-min Rain = 0
KST3 131508Z 21012KT M02/M08 A303 RMK A01 T10151083  RH  060%=      5-min Rain = 0
KST3 131509Z 21012KT M01/M08 A303 RMK A01 T10131081  RH  060%=      5-min Rain = 0
KST3 131510Z 22015KT M01/M08 A303 RMK A01 T10111080  RH  059%=      5-min Rain = 0
KST3 131511Z 21015KT M01/M08 A303 RMK A01 T10111081  RH  059%=      5-min Rain = 0
KST3 131512Z 21015KT M01/M08 A3029 RMK A01 T10111080  RH  060%=      5-min Rain = 0
KST3 131513Z 21014KT M01/M08 A3029 RMK A01 T10111079  RH  060%=      5-min Rain = 0
KST3 131514Z 21016KT M01/M08 A3029 RMK A01 T10111079  RH  060%=      5-min Rain = 0
KST3 131515Z 21016KT M01/M08 A3029 RMK A01 T10101078  RH  060%=      5-min Rain = 0
KST3 131516Z 21014KT M01/M08 A3029 RMK A01 T10101078  RH  060%=      5-min Rain = 0
KST3 131517Z 21015KT M01/M08 A3029 RMK A01 T10101078  RH  060%=      5-min Rain = 0
KST3 131518Z 21017KT M01/M08 A3029 RMK A01 T10091077  RH  060%=      5-min Rain = 0
KST3 131519Z 21016KT M01/M08 A3029 RMK A01 T10091078  RH  060%=      5-min Rain = 0
KST3 131520Z 21014KT M01/M08 A3029 RMK A01 T10091077  RH  060%=      5-min Rain = 0
KST3 131521Z 21012KT M01/M08 A3029 RMK A01 T10091076  RH  060%=      5-min Rain = 0
KST3 131522Z 21014KT M01/M08 A3029 RMK A01 T10071075  RH  060%=      5-min Rain = 0
KST3 131523Z 21015KT M01/M07 A3029 RMK A01 T10071074  RH  060%=      5-min Rain = 0
KST3 131524Z 21015KT M01/M07 A3029 RMK A01 T10061074  RH  060%=      5-min Rain = 0
KST3 131525Z 22014KT M01/M08 A3029 RMK A01 T10071075  RH  060%=      5-min Rain = 0
KST3 131526Z 21014KT M01/M07 A3029 RMK A01 T10061074  RH  060%=      5-min Rain = 0
KST3 131527Z 21015KT M00/M07 A3029 RMK A01 T10041073  RH  060%=      5-min Rain = 0
KST3 131528Z 22016KT M00/M07 A3029 RMK A01 T10041073  RH  060%=      5-min Rain = 0
KST3 131529Z 21015KT M00/M07 A3029 RMK A01 T10041073  RH  060%=      5-min Rain = 0
KST3 131530Z 21016KT M00/M07 A3029 RMK A01 T10041073  RH  059%=      5-min Rain = 0
KST3 131531Z 21015KT M00/M07 A3029 RMK A01 T10041073  RH  060%=      5-min Rain = 0
KST3 131532Z 22015KT M00/M07 A3029 RMK A01 T10031072  RH  059%=      5-min Rain = 0
KST3 131533Z 21014KT M00/M07 A3029 RMK A01 T10021072  RH  059%=      5-min Rain = 0
KST3 131534Z 20013KT 00/07 A3029 RMK A01 T00-00-72  RH  059%=      5-min Rain = 0
KST3 131535Z 21015KT 00/M07 A3029 RMK A01 T00011071  RH  058%=      5-min Rain = 0
KST3 131536Z 20016KT 00/M07 A3028 RMK A01 T00011071  RH  058%=      5-min Rain = 0
KST3 131537Z 20016KT 00/M07 A3028 RMK A01 T00011072  RH  058%=      5-min Rain = 0
KST3 131538Z 21017KT 00/M07 A3028 RMK A01 T00011072  RH  058%=      5-min Rain = 0
KST3 131539Z 21017KT 00/M07 A3028 RMK A01 T00011072  RH  058%=      5-min Rain = 0
KST3 131540Z 21016KT 00/M07 A3028 RMK A01 T00011071  RH  058%=      5-min Rain = 0
KST3 131541Z 21015KT 00/M07 A3028 RMK A01 T00021070  RH  058%=      5-min Rain = 0
KST3 131542Z 21016KT 00/M07 A3029 RMK A01 T00021071  RH  058%=      5-min Rain = 0
KST3 131543Z 21013KT 00/M07 A3029 RMK A01 T00041070  RH  057%=      5-min Rain = 0
KST3 131544Z 21014KT 01/M07 A3029 RMK A01 T00071068  RH  057%=      5-min Rain = 0
KST3 131545Z 21015KT 01/M07 A3028 RMK A01 T00071070  RH  057%=      5-min Rain = 0
KST3 131546Z 21015KT 01/M07 A3029 RMK A01 T00071070  RH  057%=      5-min Rain = 0
KST3 131547Z 21016KT 01/M07 A3028 RMK A01 T00071070  RH  057%=      5-min Rain = 0
KST3 131548Z 21016KT 01/M07 A3028 RMK A01 T00071070  RH  056%=      5-min Rain = 0
KST3 131549Z 21015KT 01/M07 A3028 RMK A01 T00071070  RH  056%=      5-min Rain = 0
KST3 131550Z 21015KT 01/M07 A3028 RMK A01 T00081070  RH  056%=      5-min Rain = 0
KST3 131551Z 21017KT 01/M07 A3028 RMK A01 T00081070  RH  056%=      5-min Rain = 0
KST3 131552Z 21017KT 01/M07 A3028 RMK A01 T00071071  RH  056%=      5-min Rain = 0
KST3 131553Z 21017KT 01/M07 A3028 RMK A01 T00071071  RH  056%=      5-min Rain = 0
KST3 131554Z 21016KT 01/M07 A3028 RMK A01 T00071071  RH  056%=      5-min Rain = 0
KST3 131555Z 21015KT 01/M07 A3028 RMK A01 T00071071  RH  056%=      5-min Rain = 0
KST3 131556Z 20015KT 01/M07 A3028 RMK A01 T00081070  RH  056%=      5-min Rain = 0
KST3 131557Z 20017KT 01/M07 A3028 RMK A01 T00091070  RH  056%=      5-min Rain = 0
KST3 131558Z 20016KT 01/M07 A3028 RMK A01 T00091071  RH  055%=      5-min Rain = 0
KST3 131559Z 19014KT 01/M07 A3028 RMK A01 T00101070  RH  055%=      5-min Rain = 0
KST3 131600Z 20013KT 01/M07 A3028 RMK A01 T00111070  RH  055%=      5-min Rain = 0
KST3 131601Z 20014KT 01/M07 A3028 RMK A01 T00131070  RH  054%=      5-min Rain = 0
KST3 131602Z 20014KT 01/M07 A3028 RMK A01 T00141070  RH  054%=      5-min Rain = 0
KST3 131603Z 20016KT 01/M07 A3028 RMK A01 T00141071  RH  053%=      5-min Rain = 0
KST3 131604Z 21017KT 01/M07 A3028 RMK A01 T00131072  RH  053%=      5-min Rain = 0
KST3 131605Z 20015KT 01/M07 A3028 RMK A01 T00121073  RH  053%=      5-min Rain = 0
KST3 131606Z 20015KT 01/M07 A3028 RMK A01 T00121072  RH  054%=      5-min Rain = 0
KST3 131607Z 20018KT 01/M07 A3028 RMK A01 T00141070  RH  053%=      5-min Rain = 0
KST3 131608Z 20018KT 01/M07 A3028 RMK A01 T00141072  RH  053%=      5-min Rain = 0
KST3 131609Z 20018KT 01/M07 A3028 RMK A01 T00121073  RH  053%=      5-min Rain = 0
KST3 131610Z 20015KT 01/M07 A3028 RMK A01 T00121072  RH  054%=      5-min Rain = 0
KST3 131611Z 19016KT 01/M07 A3028 RMK A01 T00141071  RH  053%=      5-min Rain = 0
KST3 131612Z 19016KT 01/M07 A3028 RMK A01 T00141071  RH  053%=      5-min Rain = 0
KST3 131613Z 20018KT 01/M07 A3028 RMK A01 T00131073  RH  053%=      5-min Rain = 0
KST3 131614Z 20017KT 01/M07 A3028 RMK A01 T00101074  RH  053%=      5-min Rain = 0
KST3 131615Z 20017KT 01/M08 A3028 RMK A01 T00091075  RH  054%=      5-min Rain = 0
KST3 131616Z 20018KT 01/M07 A3028 RMK A01 T00071074  RH  054%=      5-min Rain = 0
KST3 131617Z 20017KT 01/M07 A3028 RMK A01 T00071074  RH  055%=      5-min Rain = 0
KST3 131618Z 20016KT 01/M07 A3028 RMK A01 T00071074  RH  055%=      5-min Rain = 0
KST3 131619Z 20015KT 01/M07 A3028 RMK A01 T00091073  RH  055%=      5-min Rain = 0
KST3 131620Z 20015KT 01/M07 A3028 RMK A01 T00101072  RH  054%=      5-min Rain = 0
KST3 131621Z 20016KT 01/M07 A3028 RMK A01 T00111072  RH  054%=      5-min Rain = 0
KST3 131622Z 20017KT 01/M07 A3029 RMK A01 T00131071  RH  053%=      5-min Rain = 0
KST3 131623Z 20018KT 01/M07 A3029 RMK A01 T00131072  RH  053%=      5-min Rain = 0
KST3 131624Z 20017KT 01/M07 A3029 RMK A01 T00131072  RH  053%=      5-min Rain = 0
KST3 131625Z 20014KT 01/M07 A3029 RMK A01 T00131073  RH  053%=      5-min Rain = 0
KST3 131626Z 20015KT 01/M07 A3028 RMK A01 T00141071  RH  053%=      5-min Rain = 0
KST3 131627Z 20016KT 02/M07 A3028 RMK A01 T00151070  RH  053%=      5-min Rain = 0
KST3 131628Z 20014KT 02/M07 A3029 RMK A01 T00161070  RH  053%=      5-min Rain = 0
KST3 131629Z 20013KT 02/M07 A3029 RMK A01 T00171069  RH  052%=      5-min Rain = 0
KST3 131630Z 20013KT 02/M07 A3029 RMK A01 T00201068  RH  052%=      5-min Rain = 0
KST3 131631Z 20015KT 02/M07 A3029 RMK A01 T00211068  RH  051%=      5-min Rain = 0
KST3 131632Z 21015KT 02/M07 A3029 RMK A01 T00221069  RH  051%=      5-min Rain = 0
KST3 131633Z 21016KT 02/M07 A3029 RMK A01 T00211070  RH  051%=      5-min Rain = 0
KST3 131634Z 20015KT 02/M07 A3029 RMK A01 T00201070  RH  051%=      5-min Rain = 0
KST3 131635Z 20016KT 02/M07 A3029 RMK A01 T00191070  RH  052%=      5-min Rain = 0
KST3 131636Z 20015KT 02/M07 A3029 RMK A01 T00191069  RH  052%=      5-min Rain = 0
KST3 131637Z 20015KT 02/M07 A3029 RMK A01 T00191069  RH  052%=      5-min Rain = 0
KST3 131638Z 21015KT 02/M07 A3029 RMK A01 T00211068  RH  052%=      5-min Rain = 0
KST3 131639Z 21014KT 02/M07 A3029 RMK A01 T00211069  RH  051%=      5-min Rain = 0
KST3 131640Z 21015KT 02/M07 A3029 RMK A01 T00241067  RH  051%=      5-min Rain = 0
KST3 131641Z 21015KT 03/M07 A3029 RMK A01 T00251067  RH  051%=      5-min Rain = 0
KST3 131642Z 21015KT 03/M07 A3029 RMK A01 T00261066  RH  050%=      5-min Rain = 0
KST3 131643Z 21013G18KT 03/M07 A3029 RMK A01 T00281066  RH  050%=      5-min Rain = 0
KST3 131644Z 21017KT 03/M06 A3029 RMK A01 T00301064  RH  050%=      5-min Rain = 0
KST3 131645Z 21015KT 03/M07 A3029 RMK A01 T00301066  RH  049%=      5-min Rain = 0
KST3 131646Z 22014KT 03/M07 A3029 RMK A01 T00291067  RH  050%=      5-min Rain = 0
KST3 131647Z 22015KT 03/M07 A3029 RMK A01 T00301066  RH  050%=      5-min Rain = 0
KST3 131648Z 21015KT 03/M07 A3029 RMK A01 T00311065  RH  049%=      5-min Rain = 0
KST3 131649Z 22016KT 03/M07 A3029 RMK A01 T00321065  RH  049%=      5-min Rain = 0
KST3 131650Z 21015KT 03/M07 A3029 RMK A01 T00311066  RH  049%=      5-min Rain = 0
KST3 131651Z 21014KT 03/M06 A3029 RMK A01 T00321064  RH  049%=      5-min Rain = 0
KST3 131652Z 22013KT 03/M06 A3029 RMK A01 T00331064  RH  049%=      5-min Rain = 0
KST3 131653Z 22016KT 03/M06 A3029 RMK A01 T00341064  RH  049%=      5-min Rain = 0
KST3 131654Z 21013KT 03/M07 A3029 RMK A01 T00331066  RH  048%=      5-min Rain = 0
KST3 131655Z 21017KT 03/M07 A3029 RMK A01 T00331065  RH  049%=      5-min Rain = 0
KST3 131656Z 22016KT 03/M06 A3029 RMK A01 T00331064  RH  049%=      5-min Rain = 0
KST3 131657Z 22017KT 03/M07 A3029 RMK A01 T00331065  RH  049%=      5-min Rain = 0
KST3 131658Z 21015KT 03/M06 A3029 RMK A01 T00331064  RH  049%=      5-min Rain = 0
KST3 131659Z 22014KT 04/M06 A3029 RMK A01 T00351063  RH  049%=      5-min Rain = 0
KST3 131700Z 22015KT 04/M06 A3029 RMK A01 T00371062  RH  048%=      5-min Rain = 0
KST3 131701Z 22017KT 04/M06 A3029 RMK A01 T00391062  RH  048%=      5-min Rain = 0
KST3 131702Z 21016KT 04/M06 A3029 RMK A01 T00381063  RH  047%=      5-min Rain = 0
KST3 131703Z 22015KT 04/M06 A3029 RMK A01 T00371063  RH  048%=      5-min Rain = 0
KST3 131704Z 22015KT 04/M06 A3029 RMK A01 T00381063  RH  048%=      5-min Rain = 0
KST3 131705Z 22015KT 04/M06 A3029 RMK A01 T00391062  RH  048%=      5-min Rain = 0
KST3 131706Z 21016KT 04/M06 A3029 RMK A01 T00401061  RH  048%=      5-min Rain = 0
KST3 131707Z 22016KT 04/M06 A3029 RMK A01 T00401062  RH  047%=      5-min Rain = 0
KST3 131708Z 21015KT 04/M06 A3029 RMK A01 T00391062  RH  048%=      5-min Rain = 0
KST3 131709Z 21015KT 04/M06 A3029 RMK A01 T00391061  RH  048%=      5-min Rain = 0
KST3 131710Z 21015KT 04/M06 A3029 RMK A01 T00391061  RH  048%=      5-min Rain = 0
KST3 131711Z 21014KT 04/M06 A3029 RMK A01 T00401060  RH  048%=      5-min Rain = 0
KST3 131712Z 21016KT 04/M06 A3029 RMK A01 T00411059  RH  048%=      5-min Rain = 0
KST3 131713Z 21016KT 04/M06 A3028 RMK A01 T00421059  RH  048%=      5-min Rain = 0
KST3 131714Z 22016KT 04/M06 A3028 RMK A01 T00421058  RH  048%=      5-min Rain = 0
KST3 131715Z 21016KT 04/M06 A3028 RMK A01 T00431058  RH  048%=      5-min Rain = 0
KST3 131716Z 21015KT 04/M06 A3028 RMK A01 T00421059  RH  048%=      5-min Rain = 0
KST3 131717Z 21015KT 04/M06 A3028 RMK A01 T00421058  RH  048%=      5-min Rain = 0
KST3 131718Z 21016KT 04/M06 A3028 RMK A01 T00421058  RH  048%=      5-min Rain = 0
KST3 131719Z 22016KT 04/M06 A3028 RMK A01 T00431057  RH  048%=      5-min Rain = 0
KST3 131720Z 21015KT 04/M06 A3029 RMK A01 T00441057  RH  048%=      5-min Rain = 0
KST3 131721Z 21016KT 05/M06 A3029 RMK A01 T00451056  RH  048%=      5-min Rain = 0
KST3 131722Z 21015KT 05/M05 A3029 RMK A01 T00471054  RH  048%=      5-min Rain = 0
KST3 131723Z 21017KT 05/M05 A3029 RMK A01 T00491053  RH  048%=      5-min Rain = 0
KST3 131724Z 21016KT 05/M05 A3029 RMK A01 T00501053  RH  047%=      5-min Rain = 0
KST3 131725Z 22015KT 05/M05 A3029 RMK A01 T00501054  RH  047%=      5-min Rain = 0
KST3 131726Z 21015KT 05/M05 A3029 RMK A01 T00521052  RH  047%=      5-min Rain = 0
KST3 131727Z 20016KT 05/M05 A3028 RMK A01 T00531052  RH  047%=      5-min Rain = 0
KST3 131728Z 20016KT 05/M05 A3028 RMK A01 T00531051  RH  047%=      5-min Rain = 0
KST3 131729Z 21015KT 05/M05 A3028 RMK A01 T00541051  RH  047%=      5-min Rain = 0
KST3 131730Z 21015KT 06/M05 A3028 RMK A01 T00571049  RH  047%=      5-min Rain = 0
KST3 131731Z 20014KT 06/M04 A3028 RMK A01 T00621044  RH  046%=      5-min Rain = 0
KST3 131732Z 20016KT 06/M05 A3028 RMK A01 T00641046  RH  045%=      5-min Rain = 0
KST3 131733Z 21016KT 06/M05 A3028 RMK A01 T00611049  RH  045%=      5-min Rain = 0
KST3 131734Z 21012KT 06/M05 A3028 RMK A01 T00611047  RH  046%=      5-min Rain = 0
KST3 131735Z 21013KT 06/M05 A3028 RMK A01 T00631045  RH  046%=      5-min Rain = 0
KST3 131736Z 21015KT 06/M05 A3028 RMK A01 T00631046  RH  046%=      5-min Rain = 0
KST3 131737Z 20014KT 06/M05 A3028 RMK A01 T00631045  RH  046%=      5-min Rain = 0
KST3 131738Z 20012KT 06/M05 A3028 RMK A01 T00631045  RH  046%=      5-min Rain = 0
KST3 131739Z 22012KT 07/M04 A3028 RMK A01 T00651042  RH  046%=      5-min Rain = 0
KST3 131740Z 22013KT 07/M04 A3028 RMK A01 T00691041  RH  045%=      5-min Rain = 0
KST3 131741Z 21012KT 07/M04 A3028 RMK A01 T00711042  RH  045%=      5-min Rain = 0
KST3 131742Z 21012KT 07/M04 A3028 RMK A01 T00701044  RH  044%=      5-min Rain = 0
KST3 131743Z 20011KT 07/M04 A3028 RMK A01 T00681043  RH  045%=      5-min Rain = 0
KST3 131744Z 21012KT 07/M04 A3028 RMK A01 T00691040  RH  045%=      5-min Rain = 0
KST3 131745Z 22012KT 07/M04 A3028 RMK A01 T00711040  RH  045%=      5-min Rain = 0
KST3 131746Z 21014KT 07/M04 A3028 RMK A01 T00721039  RH  045%=      5-min Rain = 0
KST3 131747Z 21014G19KT 07/M04 A3027 RMK A01 T00711040  RH  045%=      5-min Rain = 0
KST3 131748Z 21014KT 07/M04 A3027 RMK A01 T00691039  RH  046%=      5-min Rain = 0
KST3 131749Z 20013KT 07/M04 A3027 RMK A01 T00701039  RH  046%=      5-min Rain = 0
KST3 131750Z 20014KT 07/M04 A3027 RMK A01 T00711039  RH  045%=      5-min Rain = 0
KST3 131751Z 21015KT 07/M04 A3027 RMK A01 T00721038  RH  045%=      5-min Rain = 0
KST3 131752Z 20011KT 07/M04 A3027 RMK A01 T00741040  RH  044%=      5-min Rain = 0
KST3 131753Z 21012KT 07/M04 A3027 RMK A01 T00731040  RH  044%=      5-min Rain = 0
KST3 131754Z 20013KT 07/M04 A3027 RMK A01 T00741040  RH  044%=      5-min Rain = 0
KST3 131755Z 20014KT 07/M04 A3027 RMK A01 T00741039  RH  044%=      5-min Rain = 0
KST3 131756Z 20014KT 07/M04 A3027 RMK A01 T00741039  RH  044%=      5-min Rain = 0
KST3 131757Z 19014KT 08/M04 A3027 RMK A01 T00751039  RH  044%=      5-min Rain = 0
KST3 131758Z 21013KT 08/M04 A3027 RMK A01 T00761039  RH  044%=      5-min Rain = 0
KST3 131759Z 22014KT 08/M04 A3027 RMK A01 T00801038  RH  043%=      5-min Rain = 0
KST3 131800Z 21014KT 08/M04 A3027 RMK A01 T00811038  RH  043%=      5-min Rain = 0
KST3 131801Z 21013KT 08/M04 A3027 RMK A01 T00821036  RH  043%=      5-min Rain = 0
KST3 131802Z 20012KT 08/M04 A3027 RMK A01 T00841035  RH  043%=      5-min Rain = 0
KST3 131803Z 20015KT 09/M04 A3027 RMK A01 T00851035  RH  043%=      5-min Rain = 0
KST3 131804Z 20014KT 08/M04 A3027 RMK A01 T00821037  RH  043%=      5-min Rain = 0
KST3 131805Z 20011KT 08/M04 A3027 RMK A01 T00811038  RH  043%=      5-min Rain = 0
KST3 131806Z 20011KT 08/M04 A3027 RMK A01 T00811037  RH  043%=      5-min Rain = 0
KST3 131807Z 21013KT 08/M04 A3027 RMK A01 T00831036  RH  043%=      5-min Rain = 0
KST3 131808Z 21015KT 09/M04 A3026 RMK A01 T00851036  RH  042%=      5-min Rain = 0
KST3 131809Z 21015KT 08/M04 A3026 RMK A01 T00841037  RH  042%=      5-min Rain = 0
KST3 131810Z 19014KT 08/M04 A3026 RMK A01 T00841037  RH  042%=      5-min Rain = 0
KST3 131811Z 19013KT 08/M04 A3026 RMK A01 T00831037  RH  043%=      5-min Rain = 0
KST3 131812Z 22015KT 09/M03 A3026 RMK A01 T00851033  RH  043%=      5-min Rain = 0
KST3 131813Z 21014KT 09/M03 A3026 RMK A01 T00861033  RH  043%=      5-min Rain = 0
KST3 131814Z 20014G19KT 09/M03 A3026 RMK A01 T00861034  RH  043%=      5-min Rain = 0
KST3 131815Z 21016KT 09/M04 A3026 RMK A01 T00851035  RH  043%=      5-min Rain = 0
KST3 131816Z 22014KT 09/M04 A3026 RMK A01 T00861035  RH  042%=      5-min Rain = 0
KST3 131817Z 20013KT 09/M03 A3026 RMK A01 T00881034  RH  042%=      5-min Rain = 0
KST3 131818Z 21013KT 09/M04 A3026 RMK A01 T00901036  RH  041%=      5-min Rain = 0
KST3 131819Z 20015KT 09/M04 A3026 RMK A01 T00901036  RH  041%=      5-min Rain = 0
KST3 131820Z 21016KT 09/M03 A3026 RMK A01 T00931033  RH  041%=      5-min Rain = 0
KST3 131821Z 21015KT 09/M04 A3025 RMK A01 T00911035  RH  041%=      5-min Rain = 0
KST3 131822Z 21016KT 09/M04 A3025 RMK A01 T00901036  RH  041%=      5-min Rain = 0
KST3 131823Z 22013KT 09/M04 A3025 RMK A01 T00901036  RH  041%=      5-min Rain = 0
KST3 131824Z 21015KT 09/M04 A3025 RMK A01 T00891036  RH  041%=      5-min Rain = 0
KST3 131825Z 20015KT 09/M04 A3025 RMK A01 T00901035  RH  041%=      5-min Rain = 0
KST3 131826Z 20014KT 09/M04 A3025 RMK A01 T00911035  RH  041%=      5-min Rain = 0
KST3 131827Z 21015KT 09/M04 A3025 RMK A01 T00911036  RH  041%=      5-min Rain = 0
KST3 131828Z 20016KT 09/M04 A3025 RMK A01 T00911035  RH  041%=      5-min Rain = 0
KST3 131829Z 20016KT 09/M04 A3024 RMK A01 T00901036  RH  041%=      5-min Rain = 0
KST3 131830Z 20016KT 09/M03 A3024 RMK A01 T00911034  RH  041%=      5-min Rain = 0
KST3 131831Z 21017KT 09/M03 A3024 RMK A01 T00931033  RH  041%=      5-min Rain = 0
KST3 131832Z 21016KT 09/M03 A3024 RMK A01 T00941034  RH  040%=      5-min Rain = 0
KST3 131833Z 21015G20KT 09/M03 A3024 RMK A01 T00941034  RH  040%=      5-min Rain = 0
KST3 131834Z 22016KT 09/M03 A3024 RMK A01 T00941034  RH  041%=      5-min Rain = 0
KST3 131835Z 21016KT 10/M03 A3024 RMK A01 T00951033  RH  040%=      5-min Rain = 0
KST3 131836Z 20012KT 09/M04 A3024 RMK A01 T00941035  RH  040%=      5-min Rain = 0
KST3 131837Z 21014G20KT 10/M03 A3024 RMK A01 T00951033  RH  040%=      5-min Rain = 0
KST3 131838Z 22015KT 10/M03 A3024 RMK A01 T00971034  RH  040%=      5-min Rain = 0
KST3 131839Z 21013KT 10/M04 A3024 RMK A01 T00961035  RH  040%=      5-min Rain = 0
KST3 131840Z 21015KT 10/M03 A3024 RMK A01 T00981033  RH  039%=      5-min Rain = 0
KST3 131841Z 21015KT 10/M03 A3024 RMK A01 T01011033  RH  039%=      5-min Rain = 0
KST3 131842Z 21014KT 10/M03 A3024 RMK A01 T01031033  RH  038%=      5-min Rain = 0
KST3 131843Z 20013KT 10/M03 A3024 RMK A01 T01021034  RH  038%=      5-min Rain = 0
KST3 131844Z 21013KT 10/M03 A3024 RMK A01 T01011034  RH  038%=      5-min Rain = 0
KST3 131845Z 21014KT 10/M04 A3024 RMK A01 T00991035  RH  039%=      5-min Rain = 0
KST3 131846Z 21016KT 10/M03 A3024 RMK A01 T01001034  RH  039%=      5-min Rain = 0
KST3 131847Z 22014KT 10/M03 A3024 RMK A01 T01011032  RH  039%=      5-min Rain = 0
KST3 131848Z 21015KT 10/M03 A3024 RMK A01 T01041032  RH  038%=      5-min Rain = 0
KST3 131849Z 21013KT 10/M03 A3024 RMK A01 T01041033  RH  038%=      5-min Rain = 0
KST3 131850Z 21016KT 10/M03 A3023 RMK A01 T01031033  RH  038%=      5-min Rain = 0
KST3 131851Z 22014KT 10/M03 A3024 RMK A01 T01041033  RH  038%=      5-min Rain = 0
KST3 131852Z 20014KT 11/M03 A3024 RMK A01 T01061032  RH  038%=      5-min Rain = 0
KST3 131853Z 21019KT 11/M03 A3024 RMK A01 T01081031  RH  038%=      5-min Rain = 0
KST3 131854Z 21016KT 11/M03 A3024 RMK A01 T01051034  RH  038%=      5-min Rain = 0
KST3 131855Z 22017G22KT 10/M03 A3024 RMK A01 T01041033  RH  038%=      5-min Rain = 0
KST3 131856Z 21015KT 11/M03 A3023 RMK A01 T01051032  RH  038%=      5-min Rain = 0
KST3 131857Z 21016G21KT 11/M03 A3023 RMK A01 T01061031  RH  038%=      5-min Rain = 0
KST3 131858Z 21016KT 11/M03 A3023 RMK A01 T01061032  RH  038%=      5-min Rain = 0
KST3 131859Z 21014KT 11/M03 A3023 RMK A01 T01051032  RH  038%=      5-min Rain = 0
KST3 131900Z 21015KT 11/M03 A3023 RMK A01 T01061032  RH  038%=      5-min Rain = 0
KST3 131901Z 21014KT 11/M03 A3023 RMK A01 T01081031  RH  038%=      5-min Rain = 0
KST3 131902Z 22016KT 11/M03 A3023 RMK A01 T01111031  RH  037%=      5-min Rain = 0
KST3 131903Z 22016KT 11/M03 A3023 RMK A01 T01101033  RH  037%=      5-min Rain = 0
KST3 131904Z 22016KT 11/M03 A3023 RMK A01 T01061034  RH  037%=      5-min Rain = 0
KST3 131905Z 21014KT 11/M03 A3023 RMK A01 T01061033  RH  038%=      5-min Rain = 0
KST3 131906Z 22014KT 11/M03 A3023 RMK A01 T01091031  RH  037%=      5-min Rain = 0
KST3 131907Z 21014KT 11/M03 A3022 RMK A01 T01091033  RH  037%=      5-min Rain = 0
KST3 131908Z 22013KT 11/M03 A3022 RMK A01 T01091033  RH  037%=      5-min Rain = 0
KST3 131909Z 22014KT 11/M03 A3022 RMK A01 T01111033  RH  036%=      5-min Rain = 0
KST3 131910Z 22016KT 11/M04 A3022 RMK A01 T01091035  RH  036%=      5-min Rain = 0
KST3 131911Z 21013G18KT 11/M03 A3022 RMK A01 T01091034  RH  037%=      5-min Rain = 0
KST3 131912Z 21015KT 11/M03 A3022 RMK A01 T01101034  RH  036%=      5-min Rain = 0
KST3 131913Z 20015KT 11/M04 A3022 RMK A01 T01081035  RH  036%=      5-min Rain = 0
KST3 131914Z 21015KT 11/M04 A3022 RMK A01 T01061036  RH  037%=      5-min Rain = 0
KST3 131915Z 20014KT 11/M03 A3022 RMK A01 T01071034  RH  037%=      5-min Rain = 0
KST3 131916Z 21015KT 11/M03 A3022 RMK A01 T01101033  RH  036%=      5-min Rain = 0
KST3 131917Z 21015KT 11/M03 A3022 RMK A01 T01111034  RH  036%=      5-min Rain = 0
KST3 131918Z 22015KT 11/M04 A3022 RMK A01 T01111035  RH  036%=      5-min Rain = 0
KST3 131919Z 22013KT 11/M04 A3022 RMK A01 T01091037  RH  036%=      5-min Rain = 0
KST3 131920Z 22013KT 11/M04 A3022 RMK A01 T01081036  RH  036%=      5-min Rain = 0
KST3 131921Z 22014KT 11/M03 A3022 RMK A01 T01121034  RH  036%=      5-min Rain = 0
KST3 131922Z 22014KT 11/M04 A3022 RMK A01 T01131036  RH  035%=      5-min Rain = 0
KST3 131923Z 20014G19KT 11/M04 A3022 RMK A01 T01131035  RH  035%=      5-min Rain = 0
KST3 131924Z 20014KT 11/M04 A3022 RMK A01 T01131036  RH  035%=      5-min Rain = 0
KST3 131925Z 21014KT 11/M04 A3022 RMK A01 T01131036  RH  035%=      5-min Rain = 0
KST3 131926Z 21012KT 11/M04 A3022 RMK A01 T01121038  RH  035%=      5-min Rain = 0
KST3 131927Z 22014KT 11/M04 A3022 RMK A01 T01121037  RH  035%=      5-min Rain = 0
KST3 131928Z 23012KT 11/M04 A3022 RMK A01 T01111038  RH  035%=      5-min Rain = 0
KST3 131929Z 21014KT 12/M03 A3021 RMK A01 T01161034  RH  035%=      5-min Rain = 0
KST3 131930Z 22011G17KT 12/M04 A3022 RMK A01 T01181036  RH  034%=      5-min Rain = 0
KST3 131931Z 22016KT 12/M04 A3021 RMK A01 T01191037  RH  034%=      5-min Rain = 0
KST3 131932Z 22014KT 12/M04 A3021 RMK A01 T01181038  RH  034%=      5-min Rain = 0
KST3 131933Z 22015KT 12/M04 A3021 RMK A01 T01181037  RH  034%=      5-min Rain = 0
KST3 131934Z 22015KT 12/M04 A3021 RMK A01 T01171038  RH  034%=      5-min Rain = 0
KST3 131935Z 22016KT 12/M04 A3021 RMK A01 T01171038  RH  034%=      5-min Rain = 0
KST3 131936Z 22013KT 12/M04 A3021 RMK A01 T01161039  RH  034%=      5-min Rain = 0
KST3 131937Z 20013KT 12/M04 A3021 RMK A01 T01161038  RH  034%=      5-min Rain = 0
KST3 131938Z 21014KT 12/M04 A3021 RMK A01 T01171037  RH  034%=      5-min Rain = 0
KST3 131939Z 22016KT 12/M04 A3021 RMK A01 T01181037  RH  034%=      5-min Rain = 0
KST3 131940Z 22014KT 12/M04 A3021 RMK A01 T01181038  RH  033%=      5-min Rain = 0
KST3 131941Z 21015KT 12/M04 A3021 RMK A01 T01181038  RH  034%=      5-min Rain = 0
KST3 131942Z 22013KT 12/M04 A3021 RMK A01 T01181038  RH  033%=      5-min Rain = 0
KST3 131943Z 22014KT 12/M04 A3021 RMK A01 T01191037  RH  033%=      5-min Rain = 0
KST3 131944Z 22014KT 12/M04 A3021 RMK A01 T01171039  RH  033%=      5-min Rain = 0
KST3 131945Z 22015KT 12/M04 A3021 RMK A01 T01171038  RH  034%=      5-min Rain = 0
KST3 131946Z 21011KT 12/M04 A3021 RMK A01 T01171038  RH  034%=      5-min Rain = 0
KST3 131947Z 21015KT 12/M04 A3021 RMK A01 T01181038  RH  033%=      5-min Rain = 0
KST3 131948Z 21015KT 12/M04 A3021 RMK A01 T01191038  RH  033%=      5-min Rain = 0
KST3 131949Z 20013KT 12/M04 A3021 RMK A01 T01191038  RH  033%=      5-min Rain = 0
KST3 131950Z 20010KT 12/M04 A3021 RMK A01 T01201038  RH  033%=      5-min Rain = 0
KST3 131951Z 21014KT 12/M04 A3021 RMK A01 T01241035  RH  033%=      5-min Rain = 0
KST3 131952Z 21014KT 13/M04 A3021 RMK A01 T01251037  RH  032%=      5-min Rain = 0
KST3 131953Z 22014KT 13/M04 A3021 RMK A01 T01251037  RH  032%=      5-min Rain = 0
KST3 131954Z 21014KT 13/M04 A302 RMK A01 T01261038  RH  032%=      5-min Rain = 0
KST3 131955Z 20013KT 13/M04 A302 RMK A01 T01251038  RH  032%=      5-min Rain = 0
KST3 131956Z 21014KT 13/M04 A302 RMK A01 T01261038  RH  032%=      5-min Rain = 0
KST3 131957Z 20013KT 13/M04 A302 RMK A01 T01251038  RH  032%=      5-min Rain = 0
KST3 131958Z 20013KT 13/M04 A302 RMK A01 T01251038  RH  032%=      5-min Rain = 0
KST3 131959Z 20013KT 13/M04 A302 RMK A01 T01251038  RH  032%=      5-min Rain = 0
KST3 132000Z 20010KT 12/M04 A302 RMK A01 T01241038  RH  032%=      5-min Rain = 0
KST3 132001Z 20012KT 13/M04 A302 RMK A01 T01251037  RH  032%=      5-min Rain = 0
KST3 132002Z 20014KT 13/M04 A302 RMK A01 T01271037  RH  032%=      5-min Rain = 0
KST3 132003Z 23012KT 13/M04 A302 RMK A01 T01291037  RH  031%=      5-min Rain = 0
KST3 132004Z 21011KT 13/M04 A302 RMK A01 T01311036  RH  031%=      5-min Rain = 0
KST3 132005Z 20012KT 13/M04 A302 RMK A01 T01331036  RH  031%=      5-min Rain = 0
KST3 132006Z 20014KT 13/M04 A302 RMK A01 T01331037  RH  030%=      5-min Rain = 0
KST3 132007Z 20013KT 13/M04 A302 RMK A01 T01311039  RH  030%=      5-min Rain = 0
KST3 132008Z 19013KT 13/M04 A302 RMK A01 T01301038  RH  031%=      5-min Rain = 0
KST3 132009Z 19014KT 13/M04 A302 RMK A01 T01301039  RH  031%=      5-min Rain = 0
KST3 132010Z 20011KT 13/M04 A302 RMK A01 T01291039  RH  031%=      5-min Rain = 0
KST3 132011Z 20011G16KT 13/M04 A3019 RMK A01 T01321035  RH  031%=      5-min Rain = 0
KST3 132012Z 21017KT 14/M04 A3019 RMK A01 T01361036  RH  030%=      5-min Rain = 0
KST3 132013Z 21016KT 13/M04 A3019 RMK A01 T01341039  RH  030%=      5-min Rain = 0
KST3 132014Z 22015KT 13/M04 A3019 RMK A01 T01331039  RH  030%=      5-min Rain = 0
KST3 132015Z 21016KT 13/M04 A3019 RMK A01 T01311039  RH  030%=      5-min Rain = 0
KST3 132016Z 21013KT 13/M04 A3019 RMK A01 T01311038  RH  031%=      5-min Rain = 0
KST3 132017Z 20013KT 13/M04 A3019 RMK A01 T01301038  RH  031%=      5-min Rain = 0
KST3 132018Z 20014KT 13/M04 A3019 RMK A01 T01291039  RH  031%=      5-min Rain = 0
KST3 132019Z 20013KT 13/M04 A3019 RMK A01 T01311038  RH  031%=      5-min Rain = 0
KST3 132020Z 20017KT 13/M04 A3019 RMK A01 T01321038  RH  030%=      5-min Rain = 0
KST3 132021Z 21014KT 13/M04 A3019 RMK A01 T01311039  RH  030%=      5-min Rain = 0
KST3 132022Z 20013KT 13/M04 A3019 RMK A01 T01311038  RH  031%=      5-min Rain = 0
KST3 132023Z 20014KT 13/M04 A3019 RMK A01 T01341037  RH  030%=      5-min Rain = 0
KST3 132024Z 21014KT 14/M04 A3019 RMK A01 T01371037  RH  030%=      5-min Rain = 0
KST3 132025Z 21013G18KT 14/M04 A3019 RMK A01 T01371038  RH  029%=      5-min Rain = 0
KST3 132026Z 20015KT 14/M04 A3019 RMK A01 T01371038  RH  029%=      5-min Rain = 0
KST3 132027Z 21014KT 14/M04 A3019 RMK A01 T01381037  RH  030%=      5-min Rain = 0
KST3 132028Z 22014KT 14/M04 A3018 RMK A01 T01391038  RH  029%=      5-min Rain = 0
KST3 132029Z 21012KT 14/M04 A3018 RMK A01 T01401037  RH  029%=      5-min Rain = 0
KST3 132030Z 20013KT 14/M04 A3018 RMK A01 T01421036  RH  029%=      5-min Rain = 0
KST3 132031Z 21014KT 14/M04 A3018 RMK A01 T01401038  RH  029%=      5-min Rain = 0
KST3 132032Z 21014KT 14/M04 A3018 RMK A01 T01411037  RH  029%=      5-min Rain = 0
KST3 132033Z 21014KT 14/M04 A3018 RMK A01 T01421038  RH  029%=      5-min Rain = 0
KST3 132034Z 21013KT 14/M04 A3018 RMK A01 T01391039  RH  029%=      5-min Rain = 0
KST3 132035Z 21015KT 14/M04 A3018 RMK A01 T01391038  RH  029%=      5-min Rain = 0
KST3 132036Z 19014KT 14/M04 A3018 RMK A01 T01401037  RH  029%=      5-min Rain = 0
KST3 132037Z 20012KT 14/M04 A3018 RMK A01 T01391038  RH  029%=      5-min Rain = 0
KST3 132038Z 21014KT 14/M04 A3018 RMK A01 T01391037  RH  029%=      5-min Rain = 0
KST3 132039Z 22013KT 14/M04 A3018 RMK A01 T01401037  RH  029%=      5-min Rain = 0
KST3 132040Z 22016KT 14/M04 A3018 RMK A01 T01401038  RH  029%=      5-min Rain = 0
KST3 132041Z 21012KT 14/M04 A3018 RMK A01 T01391039  RH  029%=      5-min Rain = 0
KST3 132042Z 21013KT 14/M04 A3018 RMK A01 T01391038  RH  029%=      5-min Rain = 0
KST3 132043Z 21011KT 14/M04 A3018 RMK A01 T01411035  RH  029%=      5-min Rain = 0
KST3 132044Z 21015KT 15/M04 A3018 RMK A01 T01461035  RH  028%=      5-min Rain = 0
KST3 132045Z 21014KT 15/M04 A3018 RMK A01 T01471037  RH  028%=      5-min Rain = 0
KST3 132046Z 22015KT 15/M04 A3018 RMK A01 T01461038  RH  028%=      5-min Rain = 0
KST3 132047Z 22013KT 14/M04 A3018 RMK A01 T01441037  RH  028%=      5-min Rain = 0
KST3 132048Z 20012KT 15/M04 A3018 RMK A01 T01461035  RH  028%=      5-min Rain = 0
KST3 132049Z 21013KT 15/M04 A3018 RMK A01 T01501035  RH  028%=      5-min Rain = 0
KST3 132050Z 20015KT 15/M04 A3018 RMK A01 T01491037  RH  027%=      5-min Rain = 0
KST3 132051Z 20015KT 15/M04 A3018 RMK A01 T01471038  RH  028%=      5-min Rain = 0
KST3 132052Z 20015KT 15/M04 A3018 RMK A01 T01471037  RH  028%=      5-min Rain = 0
KST3 132053Z 20015KT 15/M04 A3018 RMK A01 T01461037  RH  028%=      5-min Rain = 0
KST3 132054Z 20014KT 15/M04 A3017 RMK A01 T01451037  RH  028%=      5-min Rain = 0
KST3 132055Z 21014KT 15/M04 A3017 RMK A01 T01471036  RH  028%=      5-min Rain = 0
KST3 132056Z 20014KT 15/M04 A3017 RMK A01 T01491036  RH  028%=      5-min Rain = 0
KST3 132057Z 21015KT 15/M04 A3017 RMK A01 T01481037  RH  028%=      5-min Rain = 0
KST3 132058Z 21014KT 15/M04 A3017 RMK A01 T01481036  RH  028%=      5-min Rain = 0
KST3 132059Z 20015KT 15/M04 A3017 RMK A01 T01481037  RH  028%=      5-min Rain = 0
KST3 132100Z 21015KT 15/M04 A3017 RMK A01 T01451038  RH  028%=      5-min Rain = 0
KST3 132101Z 20017KT 15/M04 A3017 RMK A01 T01461037  RH  028%=      5-min Rain = 0
KST3 132102Z 21016KT 15/M04 A3017 RMK A01 T01461038  RH  028%=      5-min Rain = 0
KST3 132103Z 21015KT 15/M04 A3017 RMK A01 T01471038  RH  028%=      5-min Rain = 0
KST3 132104Z 21017KT 15/M04 A3017 RMK A01 T01471038  RH  028%=      5-min Rain = 0
KST3 132105Z 21013KT 15/M04 A3017 RMK A01 T01491037  RH  028%=      5-min Rain = 0
KST3 132106Z 21015KT 15/M04 A3017 RMK A01 T01511037  RH  027%=      5-min Rain = 0
KST3 132107Z 21014KT 15/M04 A3017 RMK A01 T01511038  RH  027%=      5-min Rain = 0
KST3 132108Z 22015KT 15/M04 A3017 RMK A01 T01521036  RH  027%=      5-min Rain = 0
KST3 132109Z 22014KT 15/M04 A3017 RMK A01 T01521038  RH  027%=      5-min Rain = 0
KST3 132110Z 21012KT 15/M04 A3017 RMK A01 T01501038  RH  027%=      5-min Rain = 0
KST3 132111Z 22013KT 15/M04 A3017 RMK A01 T01511037  RH  027%=      5-min Rain = 0
KST3 132112Z 21014KT 15/M04 A3017 RMK A01 T01511038  RH  027%=      5-min Rain = 0
KST3 132113Z 21015KT 15/M04 A3017 RMK A01 T01511037  RH  027%=      5-min Rain = 0
KST3 132114Z 21013KT 15/M04 A3017 RMK A01 T01511038  RH  027%=      5-min Rain = 0
KST3 132115Z 21010KT 15/M04 A3017 RMK A01 T01491038  RH  027%=      5-min Rain = 0
KST3 132116Z 22014KT 15/M04 A3017 RMK A01 T01501036  RH  027%=      5-min Rain = 0
KST3 132117Z 21013KT 15/M04 A3017 RMK A01 T01511037  RH  027%=      5-min Rain = 0
KST3 132118Z 20012KT 15/M04 A3017 RMK A01 T01531035  RH  027%=      5-min Rain = 0
KST3 132119Z 20013KT 16/M04 A3017 RMK A01 T01551035  RH  027%=      5-min Rain = 0
KST3 132120Z 20012KT 15/M04 A3017 RMK A01 T01531036  RH  027%=      5-min Rain = 0
KST3 132121Z 21012KT 15/M04 A3017 RMK A01 T01531036  RH  027%=      5-min Rain = 0
KST3 132122Z 21013KT 16/M03 A3017 RMK A01 T01551034  RH  027%=      5-min Rain = 0
KST3 132123Z 19012KT 16/M04 A3017 RMK A01 T01571035  RH  027%=      5-min Rain = 0
KST3 132124Z 20012KT 16/M04 A3017 RMK A01 T01571036  RH  026%=      5-min Rain = 0
KST3 132125Z 20011KT 16/M04 A3017 RMK A01 T01551036  RH  027%=      5-min Rain = 0
KST3 132126Z 20012KT 16/M03 A3017 RMK A01 T01591033  RH  027%=      5-min Rain = 0
KST3 132127Z 20014KT 16/M04 A3017 RMK A01 T01611035  RH  026%=      5-min Rain = 0
KST3 132128Z 20012KT 16/M04 A3017 RMK A01 T01581037  RH  026%=      5-min Rain = 0
KST3 132129Z 19012KT 16/M04 A3017 RMK A01 T01561037  RH  026%=      5-min Rain = 0
KST3 132130Z 19011KT 16/M04 A3017 RMK A01 T01561037  RH  026%=      5-min Rain = 0
KST3 132131Z 19016KT 16/M04 A3017 RMK A01 T01581036  RH  026%=      5-min Rain = 0
KST3 132132Z 19015KT 16/M04 A3017 RMK A01 T01581037  RH  026%=      5-min Rain = 0
KST3 132133Z 20012KT 16/M04 A3017 RMK A01 T01561038  RH  026%=      5-min Rain = 0
KST3 132134Z 20012KT 16/M04 A3017 RMK A01 T01561036  RH  026%=      5-min Rain = 0
KST3 132135Z 19014KT 16/M04 A3017 RMK A01 T01581037  RH  026%=      5-min Rain = 0
KST3 132136Z 20015KT 16/M04 A3017 RMK A01 T01591036  RH  026%=      5-min Rain = 0
KST3 132137Z 20014KT 16/M04 A3017 RMK A01 T01591037  RH  026%=      5-min Rain = 0
KST3 132138Z 20014KT 16/M04 A3017 RMK A01 T01591037  RH  026%=      5-min Rain = 0
KST3 132139Z 21013KT 16/M04 A3017 RMK A01 T01591037  RH  026%=      5-min Rain = 0
KST3 132140Z 21012KT 16/M04 A3017 RMK A01 T01591037  RH  026%=      5-min Rain = 0
KST3 132141Z 22011KT 16/M04 A3017 RMK A01 T01601036  RH  026%=      5-min Rain = 0
KST3 132142Z 21010KT 16/M04 A3017 RMK A01 T01621036  RH  025%=      5-min Rain = 0
KST3 132143Z 20014KT 17/M04 A3017 RMK A01 T01651035  RH  025%=      5-min Rain = 0
KST3 132144Z 19012KT 17/M04 A3017 RMK A01 T01651036  RH  025%=      5-min Rain = 0
KST3 132145Z 19012KT 17/M04 A3017 RMK A01 T01651036  RH  025%=      5-min Rain = 0
KST3 132146Z 20013KT 17/M04 A3017 RMK A01 T01651036  RH  025%=      5-min Rain = 0
KST3 132147Z 20011KT 16/M04 A3017 RMK A01 T01641035  RH  025%=      5-min Rain = 0
KST3 132148Z 20012KT 16/M04 A3017 RMK A01 T01631035  RH  025%=      5-min Rain = 0
KST3 132149Z 21014KT 16/M04 A3017 RMK A01 T01641036  RH  025%=      5-min Rain = 0
KST3 132150Z 20013KT 16/M04 A3017 RMK A01 T01641037  RH  025%=      5-min Rain = 0
KST3 132151Z 20013KT 16/M04 A3017 RMK A01 T01641038  RH  025%=      5-min Rain = 0
KST3 132152Z 19012KT 16/M04 A3017 RMK A01 T01641037  RH  025%=      5-min Rain = 0
KST3 132153Z 20013KT 16/M04 A3017 RMK A01 T01641036  RH  025%=      5-min Rain = 0
KST3 132154Z 20014KT 16/M04 A3017 RMK A01 T01641036  RH  025%=      5-min Rain = 0
KST3 132155Z 20012KT 16/M04 A3017 RMK A01 T01641036  RH  025%=      5-min Rain = 0
KST3 132156Z 20013KT 16/M04 A3017 RMK A01 T01641036  RH  025%=      5-min Rain = 0
KST3 132157Z 19010KT 16/M04 A3017 RMK A01 T01641036  RH  025%=      5-min Rain = 0
KST3 132158Z 19011KT 17/M04 A3017 RMK A01 T01651036  RH  025%=      5-min Rain = 0
KST3 132159Z 20010KT 17/M04 A3017 RMK A01 T01661036  RH  025%=      5-min Rain = 0
KST3 132200Z 19014KT 17/M04 A3017 RMK A01 T01681035  RH  025%=      5-min Rain = 0
KST3 132201Z 19013KT 17/M04 A3017 RMK A01 T01661037  RH  025%=      5-min Rain = 0
KST3 132202Z 20012KT 16/M04 A3017 RMK A01 T01631038  RH  025%=      5-min Rain = 0
KST3 132203Z 19010KT 16/M04 A3017 RMK A01 T01621037  RH  025%=      5-min Rain = 0
KST3 132204Z 19012KT 17/M04 A3017 RMK A01 T01651036  RH  025%=      5-min Rain = 0
KST3 132205Z 19012KT 17/M04 A3017 RMK A01 T01671036  RH  025%=      5-min Rain = 0
KST3 132206Z 20013KT 17/M04 A3017 RMK A01 T01671038  RH  024%=      5-min Rain = 0
KST3 132207Z 21013KT 17/M04 A3017 RMK A01 T01651038  RH  024%=      5-min Rain = 0
KST3 132208Z 21012KT 17/M04 A3017 RMK A01 T01651038  RH  025%=      5-min Rain = 0
KST3 132209Z 21011KT 16/M04 A3016 RMK A01 T01641037  RH  025%=      5-min Rain = 0
KST3 132210Z 19012KT 17/M04 A3017 RMK A01 T01651037  RH  025%=      5-min Rain = 0
KST3 132211Z 18010KT 17/M04 A3017 RMK A01 T01651037  RH  025%=      5-min Rain = 0
KST3 132212Z 18010KT 16/M04 A3017 RMK A01 T01641037  RH  025%=      5-min Rain = 0
KST3 132213Z 19011KT 16/M04 A3017 RMK A01 T01641037  RH  025%=      5-min Rain = 0
KST3 132214Z 18014KT 17/M04 A3017 RMK A01 T01651037  RH  025%=      5-min Rain = 0
KST3 132215Z 19011KT 17/M04 A3017 RMK A01 T01651037  RH  025%=      5-min Rain = 0
KST3 132216Z 19010KT 17/M04 A3017 RMK A01 T01661036  RH  025%=      5-min Rain = 0
KST3 132217Z 20010KT 17/M04 A3016 RMK A01 T01671036  RH  025%=      5-min Rain = 0
KST3 132218Z 18012KT 17/M04 A3016 RMK A01 T01681036  RH  025%=      5-min Rain = 0
KST3 132219Z 18014KT 17/M04 A3016 RMK A01 T01681037  RH  024%=      5-min Rain = 0
KST3 132220Z 18014KT 17/M04 A3016 RMK A01 T01661038  RH  024%=      5-min Rain = 0
KST3 132221Z 18013KT 17/M04 A3016 RMK A01 T01661037  RH  025%=      5-min Rain = 0
KST3 132222Z 18015KT 17/M04 A3016 RMK A01 T01651038  RH  025%=      5-min Rain = 0
KST3 132223Z 19013KT 17/M04 A3016 RMK A01 T01651038  RH  025%=      5-min Rain = 0
KST3 132224Z 18012KT 17/M04 A3016 RMK A01 T01651038  RH  025%=      5-min Rain = 0
KST3 132225Z 18013KT 17/M04 A3016 RMK A01 T01661037  RH  025%=      5-min Rain = 0
KST3 132226Z 18014KT 17/M04 A3016 RMK A01 T01651038  RH  025%=      5-min Rain = 0
KST3 132227Z 18014KT 16/M04 A3016 RMK A01 T01641038  RH  025%=      5-min Rain = 0
KST3 132228Z 18014KT 16/M04 A3016 RMK A01 T01641038  RH  025%=      5-min Rain = 0
KST3 132229Z 18016KT 16/M04 A3016 RMK A01 T01641038  RH  025%=      5-min Rain = 0
KST3 132230Z 19015KT 16/M04 A3016 RMK A01 T01641038  RH  025%=      5-min Rain = 0
KST3 132231Z 19013KT 17/M04 A3016 RMK A01 T01651037  RH  025%=      5-min Rain = 0
KST3 132232Z 19012KT 17/M04 A3016 RMK A01 T01651038  RH  025%=      5-min Rain = 0
KST3 132233Z 20015G20KT 17/M04 A3016 RMK A01 T01661037  RH  025%=      5-min Rain = 0
KST3 132234Z 20016KT 17/M04 A3016 RMK A01 T01661038  RH  024%=      5-min Rain = 0
KST3 132235Z 19012KT 17/M04 A3016 RMK A01 T01661038  RH  024%=      5-min Rain = 0
KST3 132236Z 19013KT 17/M04 A3016 RMK A01 T01671037  RH  024%=      5-min Rain = 0
KST3 132237Z 19014KT 17/M04 A3016 RMK A01 T01671038  RH  024%=      5-min Rain = 0
KST3 132238Z 19013KT 17/M04 A3016 RMK A01 T01671038  RH  024%=      5-min Rain = 0
KST3 132239Z 18012KT 17/M04 A3016 RMK A01 T01671037  RH  025%=      5-min Rain = 0
KST3 132240Z 18013KT 17/M04 A3016 RMK A01 T01671037  RH  025%=      5-min Rain = 0
KST3 132241Z 18012KT 17/M04 A3016 RMK A01 T01661037  RH  025%=      5-min Rain = 0
KST3 132242Z 18011KT 17/M04 A3016 RMK A01 T01661036  RH  025%=      5-min Rain = 0
KST3 132243Z 17014KT 17/M04 A3016 RMK A01 T01661037  RH  025%=      5-min Rain = 0
KST3 132244Z 18014KT 17/M04 A3016 RMK A01 T01661037  RH  025%=      5-min Rain = 0
KST3 132245Z 18011KT 17/M04 A3016 RMK A01 T01651037  RH  025%=      5-min Rain = 0
KST3 132246Z 18014KT 17/M04 A3016 RMK A01 T01651036  RH  025%=      5-min Rain = 0
KST3 132247Z 18012KT 16/M04 A3016 RMK A01 T01641036  RH  025%=      5-min Rain = 0
KST3 132248Z 18013KT 16/M04 A3016 RMK A01 T01641036  RH  025%=      5-min Rain = 0
KST3 132249Z 18014KT 16/M04 A3016 RMK A01 T01641036  RH  025%=      5-min Rain = 0
KST3 132250Z 18013KT 16/M04 A3016 RMK A01 T01631037  RH  025%=      5-min Rain = 0
KST3 132251Z 18013KT 16/M04 A3016 RMK A01 T01621037  RH  025%=      5-min Rain = 0
KST3 132252Z 18014KT 16/M04 A3016 RMK A01 T01631036  RH  025%=      5-min Rain = 0
KST3 132253Z 18012KT 16/M04 A3016 RMK A01 T01631036  RH  025%=      5-min Rain = 0
KST3 132254Z 18012KT 16/M04 A3016 RMK A01 T01631036  RH  025%=      5-min Rain = 0
KST3 132255Z 18015KT 16/M04 A3016 RMK A01 T01621036  RH  025%=      5-min Rain = 0
KST3 132256Z 19013KT 16/M04 A3016 RMK A01 T01621036  RH  025%=      5-min Rain = 0
KST3 132257Z 19013KT 16/M04 A3016 RMK A01 T01621036  RH  025%=      5-min Rain = 0
KST3 132258Z 18013KT 16/M04 A3016 RMK A01 T01621036  RH  025%=      5-min Rain = 0
KST3 132259Z 19015KT 16/M04 A3016 RMK A01 T01621036  RH  026%=      5-min Rain = 0
KST3 132300Z 20014KT 16/M04 A3016 RMK A01 T01611036  RH  026%=      5-min Rain = 0
KST3 132301Z 19014KT 16/M04 A3016 RMK A01 T01611036  RH  026%=      5-min Rain = 0
KST3 132302Z 18015KT 16/M04 A3016 RMK A01 T01611036  RH  026%=      5-min Rain = 0
KST3 132303Z 18015KT 16/M04 A3016 RMK A01 T01601036  RH  026%=      5-min Rain = 0
KST3 132304Z 18014KT 16/M04 A3016 RMK A01 T01591036  RH  026%=      5-min Rain = 0
KST3 132305Z 18012KT 16/M04 A3016 RMK A01 T01591036  RH  026%=      5-min Rain = 0
KST3 132306Z 18013KT 16/M04 A3016 RMK A01 T01591036  RH  026%=      5-min Rain = 0
KST3 132307Z 18012KT 16/M04 A3016 RMK A01 T01581036  RH  026%=      5-min Rain = 0
KST3 132308Z 19011KT 16/M04 A3016 RMK A01 T01581035  RH  026%=      5-min Rain = 0
KST3 132309Z 19014KT 16/M04 A3016 RMK A01 T01581036  RH  026%=      5-min Rain = 0
KST3 132310Z 19015KT 16/M04 A3016 RMK A01 T01581036  RH  026%=      5-min Rain = 0
KST3 132311Z 18014KT 16/M04 A3016 RMK A01 T01571036  RH  026%=      5-min Rain = 0
KST3 132312Z 18013KT 16/M04 A3016 RMK A01 T01571035  RH  026%=      5-min Rain = 0
KST3 132313Z 19012KT 16/M04 A3016 RMK A01 T01561035  RH  027%=      5-min Rain = 0
KST3 132314Z 18014KT 16/M04 A3016 RMK A01 T01571035  RH  027%=      5-min Rain = 0
KST3 132315Z 18015KT 16/M04 A3016 RMK A01 T01561035  RH  027%=      5-min Rain = 0
KST3 132316Z 18017KT 16/M03 A3016 RMK A01 T01551034  RH  027%=      5-min Rain = 0
KST3 132317Z 18017KT 15/M03 A3016 RMK A01 T01541033  RH  027%=      5-min Rain = 0
KST3 132318Z 18015KT 15/M03 A3016 RMK A01 T01531033  RH  028%=      5-min Rain = 0
KST3 132319Z 18016KT 15/M03 A3016 RMK A01 T01531033  RH  028%=      5-min Rain = 0
KST3 132320Z 18015KT 15/M03 A3016 RMK A01 T01531032  RH  028%=      5-min Rain = 0
KST3 132321Z 18015KT 15/M03 A3015 RMK A01 T01531032  RH  028%=      5-min Rain = 0
KST3 132322Z 18014KT 15/M03 A3015 RMK A01 T01521032  RH  028%=      5-min Rain = 0
KST3 132323Z 18014KT 15/M03 A3015 RMK A01 T01521032  RH  028%=      5-min Rain = 0
KST3 132324Z 18014KT 15/M03 A3015 RMK A01 T01511032  RH  028%=      5-min Rain = 0
KST3 132325Z 18012KT 15/M03 A3015 RMK A01 T01511032  RH  028%=      5-min Rain = 0
KST3 132326Z 18013KT 15/M03 A3015 RMK A01 T01501032  RH  028%=      5-min Rain = 0
KST3 132327Z 18014KT 15/M03 A3015 RMK A01 T01501032  RH  028%=      5-min Rain = 0
KST3 132328Z 19013KT 15/M03 A3016 RMK A01 T01501032  RH  028%=      5-min Rain = 0
KST3 132329Z 18013KT 15/M03 A3016 RMK A01 T01501032  RH  028%=      5-min Rain = 0
KST3 132330Z 18014KT 15/M03 A3016 RMK A01 T01501031  RH  029%=      5-min Rain = 0
KST3 132331Z 19013KT 15/M03 A3016 RMK A01 T01491032  RH  029%=      5-min Rain = 0
KST3 132332Z 19011KT 15/M03 A3016 RMK A01 T01491032  RH  029%=      5-min Rain = 0
KST3 132333Z 18014KT 15/M03 A3016 RMK A01 T01481032  RH  029%=      5-min Rain = 0
KST3 132334Z 18015KT 15/M03 A3016 RMK A01 T01481032  RH  029%=      5-min Rain = 0
KST3 132335Z 18015KT 15/M03 A3016 RMK A01 T01481031  RH  029%=      5-min Rain = 0
KST3 132336Z 18015KT 15/M03 A3016 RMK A01 T01481031  RH  029%=      5-min Rain = 0
KST3 132337Z 18015KT 15/M03 A3016 RMK A01 T01471031  RH  029%=      5-min Rain = 0
KST3 132338Z 18015KT 15/M03 A3016 RMK A01 T01471031  RH  029%=      5-min Rain = 0
KST3 132339Z 18015KT 15/M03 A3016 RMK A01 T01471031  RH  029%=      5-min Rain = 0
KST3 132340Z 18016KT 15/M03 A3016 RMK A01 T01461031  RH  029%=      5-min Rain = 0
KST3 132341Z 18015KT 15/M03 A3016 RMK A01 T01461030  RH  030%=      5-min Rain = 0
KST3 132342Z 18017KT 15/M03 A3016 RMK A01 T01451030  RH  030%=      5-min Rain = 0
KST3 132343Z 18016KT 14/M03 A3016 RMK A01 T01441030  RH  030%=      5-min Rain = 0
KST3 132344Z 18017KT 14/M03 A3016 RMK A01 T01441029  RH  030%=      5-min Rain = 0
KST3 132345Z 18019KT 14/M03 A3016 RMK A01 T01431030  RH  030%=      5-min Rain = 0
KST3 132346Z 18017KT 14/M03 A3016 RMK A01 T01431029  RH  030%=      5-min Rain = 0
KST3 132347Z 18018KT 14/M03 A3016 RMK A01 T01431030  RH  030%=      5-min Rain = 0
KST3 132348Z 18017KT 14/M03 A3016 RMK A01 T01421029  RH  030%=      5-min Rain = 0
KST3 132349Z 18017KT 14/M03 A3016 RMK A01 T01421029  RH  031%=      5-min Rain = 0
KST3 132350Z 18016KT 14/M03 A3016 RMK A01 T01421029  RH  031%=      5-min Rain = 0
KST3 132351Z 18016KT 14/M03 A3016 RMK A01 T01421029  RH  031%=      5-min Rain = 0
KST3 132352Z 18016KT 14/M03 A3016 RMK A01 T01411029  RH  031%=      5-min Rain = 0
KST3 132353Z 18017KT 14/M03 A3016 RMK A01 T01411029  RH  031%=      5-min Rain = 0
KST3 132354Z 18016KT 14/M03 A3016 RMK A01 T01411029  RH  031%=      5-min Rain = 0
KST3 132355Z 18014KT 14/M03 A3016 RMK A01 T01401029  RH  031%=      5-min Rain = 0
KST3 132356Z 19016KT 14/M03 A3016 RMK A01 T01401029  RH  031%=      5-min Rain = 0
KST3 132357Z 18018G23KT 14/M03 A3016 RMK A01 T01391030  RH  031%=      5-min Rain = 0
KST3 132358Z 18017KT 14/M03 A3016 RMK A01 T01391029  RH  031%=      5-min Rain = 0
KST3 132359Z 19018KT 14/M03 A3016 RMK A01 T01391029  RH  031%=      5-min Rain = 0
KST3 140000Z 19015KT 14/M03 A3016 RMK A01 T01391030  RH  031%=      5-min Rain = 0
KST3 140001Z 19015KT 14/M03 A3016 RMK A01 T01381030  RH  031%=      5-min Rain = 0
KST3 140002Z 18018KT 14/M03 A3016 RMK A01 T01381030  RH  031%=      5-min Rain = 0
KST3 140003Z 18016KT 14/M03 A3016 RMK A01 T01371030  RH  031%=      5-min Rain = 0
KST3 140004Z 19015KT 14/M03 A3016 RMK A01 T01371030  RH  031%=      5-min Rain = 0
KST3 140005Z 19013G18KT 14/M03 A3016 RMK A01 T01371030  RH  031%=      5-min Rain = 0
KST3 140011Z 18018KT 13/M03 A3016 RMK A01 T01331029  RH  032%=      5-min Rain = 0
KST3 140012Z 19016KT 13/M03 A3016 RMK A01 T01341029  RH  032%=      5-min Rain = 0
KST3 140013Z 19015G20KT 13/M03 A3016 RMK A01 T01341029  RH  032%=      5-min Rain = 0
KST3 140014Z 18015KT 13/M03 A3016 RMK A01 T01331030  RH  032%=      5-min Rain = 0
KST3 140015Z 19014KT 13/M03 A3016 RMK A01 T01321030  RH  032%=      5-min Rain = 0
KST3 140016Z 19015KT 13/M03 A3016 RMK A01 T01321030  RH  032%=      5-min Rain = 0
KST3 140017Z 19015KT 13/M03 A3016 RMK A01 T01311030  RH  033%=      5-min Rain = 0
KST3 140018Z 19016KT 13/M03 A3016 RMK A01 T01311030  RH  033%=      5-min Rain = 0
KST3 140019Z 18014KT 13/M03 A3016 RMK A01 T01311030  RH  033%=      5-min Rain = 0
KST3 140020Z 19015KT 13/M03 A3016 RMK A01 T01301030  RH  033%=      5-min Rain = 0
KST3 140021Z 19015KT 13/M03 A3016 RMK A01 T01301030  RH  033%=      5-min Rain = 0
KST3 140022Z 19015KT 13/M03 A3016 RMK A01 T01301030  RH  033%=      5-min Rain = 0
KST3 140023Z 18016KT 13/M03 A3016 RMK A01 T01301030  RH  033%=      5-min Rain = 0
KST3 140024Z 19015KT 13/M03 A3016 RMK A01 T01301029  RH  033%=      5-min Rain = 0
KST3 140025Z 19015KT 13/M03 A3016 RMK A01 T01301030  RH  033%=      5-min Rain = 0
KST3 140026Z 18014KT 13/M03 A3016 RMK A01 T01291030  RH  033%=      5-min Rain = 0
KST3 140027Z 18014KT 13/M03 A3016 RMK A01 T01291030  RH  033%=      5-min Rain = 0
KST3 140028Z 19013KT 13/M03 A3016 RMK A01 T01281030  RH  033%=      5-min Rain = 0
KST3 140029Z 19015KT 13/M03 A3016 RMK A01 T01271031  RH  033%=      5-min Rain = 0
KST3 140030Z 19015KT 13/M03 A3016 RMK A01 T01271031  RH  033%=      5-min Rain = 0
KST3 140031Z 19015KT 13/M03 A3016 RMK A01 T01271031  RH  033%=      5-min Rain = 0
KST3 140032Z 19014KT 13/M03 A3016 RMK A01 T01271031  RH  033%=      5-min Rain = 0
KST3 140033Z 19014KT 13/M03 A3016 RMK A01 T01261031  RH  033%=      5-min Rain = 0
KST3 140034Z 19013KT 13/M03 A3016 RMK A01 T01251032  RH  033%=      5-min Rain = 0
KST3 140035Z 19012KT 13/M03 A3016 RMK A01 T01251032  RH  034%=      5-min Rain = 0
KST3 140036Z 19014KT 12/M03 A3016 RMK A01 T01241032  RH  034%=      5-min Rain = 0
KST3 140037Z 19013KT 12/M03 A3016 RMK A01 T01241032  RH  034%=      5-min Rain = 0
KST3 140038Z 19015KT 12/M03 A3016 RMK A01 T01231032  RH  034%=      5-min Rain = 0
KST3 140039Z 19013KT 12/M03 A3016 RMK A01 T01231032  RH  034%=      5-min Rain = 0
KST3 140040Z 19013KT 12/M03 A3016 RMK A01 T01221033  RH  034%=      5-min Rain = 0
KST3 140041Z 19013G18KT 12/M03 A3016 RMK A01 T01211033  RH  034%=      5-min Rain = 0
KST3 140042Z 19013KT 12/M03 A3016 RMK A01 T01211033  RH  034%=      5-min Rain = 0
KST3 140043Z 19014KT 12/M03 A3016 RMK A01 T01211033  RH  034%=      5-min Rain = 0
KST3 140044Z 19014KT 12/M03 A3016 RMK A01 T01211033  RH  034%=      5-min Rain = 0
KST3 140045Z 19014KT 12/M03 A3016 RMK A01 T01201033  RH  034%=      5-min Rain = 0
KST3 140046Z 19015KT 12/M03 A3016 RMK A01 T01201033  RH  034%=      5-min Rain = 0
KST3 140047Z 19015KT 12/M03 A3016 RMK A01 T01201033  RH  034%=      5-min Rain = 0
KST3 140048Z 19014KT 12/M03 A3016 RMK A01 T01211033  RH  034%=      5-min Rain = 0
KST3 140049Z 19014KT 12/M03 A3016 RMK A01 T01211033  RH  034%=      5-min Rain = 0
KST3 140050Z 19015KT 12/M03 A3016 RMK A01 T01201034  RH  034%=      5-min Rain = 0
KST3 140051Z 19014KT 12/M03 A3016 RMK A01 T01201034  RH  034%=      5-min Rain = 0
KST3 140052Z 19015KT 12/M03 A3016 RMK A01 T01201033  RH  034%=      5-min Rain = 0
KST3 140053Z 19014KT 12/M03 A3016 RMK A01 T01191034  RH  034%=      5-min Rain = 0
KST3 140054Z 19014KT 12/M03 A3016 RMK A01 T01191034  RH  034%=      5-min Rain = 0
KST3 140055Z 19015KT 12/M03 A3016 RMK A01 T01191034  RH  034%=      5-min Rain = 0
KST3 140056Z 19015KT 12/M03 A3016 RMK A01 T01201033  RH  034%=      5-min Rain = 0
KST3 140057Z 19015KT 12/M03 A3016 RMK A01 T01201034  RH  034%=      5-min Rain = 0
KST3 140058Z 19017KT 12/M03 A3016 RMK A01 T01201034  RH  034%=      5-min Rain = 0
KST3 140059Z 19015KT 12/M03 A3016 RMK A01 T01201034  RH  034%=      5-min Rain = 0
KST3 140100Z 19015KT 12/M03 A3016 RMK A01 T01201034  RH  034%=      5-min Rain = 0
KST3 140101Z 19014KT 12/M03 A3016 RMK A01 T01191034  RH  034%=      5-min Rain = 0
KST3 140102Z 19015KT 12/M03 A3016 RMK A01 T01191034  RH  034%=      5-min Rain = 0
KST3 140103Z 19015KT 12/M03 A3016 RMK A01 T01191034  RH  034%=      5-min Rain = 0
KST3 140104Z 19016KT 12/M03 A3016 RMK A01 T01191034  RH  034%=      5-min Rain = 0
KST3 140105Z 19015KT 12/M04 A3016 RMK A01 T01191035  RH  034%=      5-min Rain = 0
KST3 140106Z 19015KT 12/M04 A3016 RMK A01 T01181035  RH  034%=      5-min Rain = 0
KST3 140107Z 19015KT 12/M04 A3016 RMK A01 T01181035  RH  034%=      5-min Rain = 0
KST3 140108Z 19015KT 12/M04 A3016 RMK A01 T01181035  RH  034%=      5-min Rain = 0
KST3 140109Z 19016KT 12/M04 A3016 RMK A01 T01181035  RH  034%=      5-min Rain = 0
KST3 140110Z 19015KT 12/M04 A3016 RMK A01 T01181035  RH  034%=      5-min Rain = 0
KST3 140111Z 19016KT 12/M04 A3016 RMK A01 T01181035  RH  034%=      5-min Rain = 0
KST3 140112Z 19015KT 12/M04 A3016 RMK A01 T01181035  RH  034%=      5-min Rain = 0
KST3 140113Z 19016KT 12/M04 A3016 RMK A01 T01181035  RH  034%=      5-min Rain = 0
KST3 140114Z 19015KT 12/M04 A3016 RMK A01 T01181035  RH  034%=      5-min Rain = 0
KST3 140115Z 19014KT 12/M04 A3016 RMK A01 T01191035  RH  034%=      5-min Rain = 0
KST3 140116Z 19014KT 12/M04 A3016 RMK A01 T01191035  RH  034%=      5-min Rain = 0
KST3 140117Z 18015KT 12/M04 A3016 RMK A01 T01191035  RH  034%=      5-min Rain = 0
KST3 140118Z 19014KT 12/M04 A3016 RMK A01 T01181035  RH  034%=      5-min Rain = 0
KST3 140119Z 18013KT 12/M04 A3016 RMK A01 T01181035  RH  034%=      5-min Rain = 0
KST3 140120Z 19015KT 12/M04 A3016 RMK A01 T01181035  RH  034%=      5-min Rain = 0
KST3 140121Z 19013KT 12/M04 A3017 RMK A01 T01191035  RH  034%=      5-min Rain = 0
KST3 140122Z 19012KT 12/M04 A3017 RMK A01 T01181036  RH  034%=      5-min Rain = 0
KST3 140123Z 19012KT 12/M04 A3017 RMK A01 T01171036  RH  034%=      5-min Rain = 0
KST3 140124Z 19012KT 12/M04 A3017 RMK A01 T01171035  RH  034%=      5-min Rain = 0
KST3 140125Z 18012KT 12/M04 A3017 RMK A01 T01161036  RH  034%=      5-min Rain = 0
KST3 140126Z 19013KT 12/M04 A3016 RMK A01 T01161035  RH  035%=      5-min Rain = 0
KST3 140127Z 19014KT 12/M04 A3016 RMK A01 T01161035  RH  035%=      5-min Rain = 0
KST3 140128Z 19014KT 12/M03 A3016 RMK A01 T01161034  RH  035%=      5-min Rain = 0
KST3 140129Z 18014KT 12/M04 A3016 RMK A01 T01161035  RH  035%=      5-min Rain = 0
KST3 140130Z 18014KT 12/M03 A3016 RMK A01 T01161034  RH  035%=      5-min Rain = 0
KST3 140131Z 19013KT 12/M03 A3016 RMK A01 T01171034  RH  035%=      5-min Rain = 0
KST3 140132Z 19015KT 12/M03 A3016 RMK A01 T01171034  RH  035%=      5-min Rain = 0
KST3 140133Z 18013KT 12/M03 A3017 RMK A01 T01171034  RH  035%=      5-min Rain = 0
KST3 140134Z 18012KT 12/M03 A3017 RMK A01 T01171034  RH  035%=      5-min Rain = 0
KST3 140135Z 18013KT 12/M03 A3017 RMK A01 T01161034  RH  035%=      5-min Rain = 0
KST3 140136Z 18014KT 12/M03 A3017 RMK A01 T01161033  RH  035%=      5-min Rain = 0
KST3 140137Z 18015KT 12/M03 A3017 RMK A01 T01171033  RH  035%=      5-min Rain = 0
KST3 140138Z 19016KT 12/M03 A3017 RMK A01 T01171033  RH  035%=      5-min Rain = 0
KST3 140139Z 18014KT 12/M03 A3017 RMK A01 T01181032  RH  035%=      5-min Rain = 0
KST3 140140Z 18013KT 12/M03 A3017 RMK A01 T01171033  RH  035%=      5-min Rain = 0
KST3 140141Z 18014KT 12/M03 A3017 RMK A01 T01161033  RH  035%=      5-min Rain = 0
KST3 140142Z 18014KT 12/M03 A3017 RMK A01 T01151033  RH  035%=      5-min Rain = 0
KST3 140143Z 19013KT 12/M03 A3017 RMK A01 T01151032  RH  035%=      5-min Rain = 0
KST3 140144Z 18014KT 12/M03 A3017 RMK A01 T01151033  RH  035%=      5-min Rain = 0
KST3 140145Z 19012KT 12/M03 A3017 RMK A01 T01151032  RH  035%=      5-min Rain = 0
KST3 140146Z 18011KT 12/M03 A3017 RMK A01 T01151032  RH  035%=      5-min Rain = 0
KST3 140147Z 19012KT 11/M03 A3017 RMK A01 T01141033  RH  036%=      5-min Rain = 0
KST3 140148Z 18012KT 11/M03 A3017 RMK A01 T01141032  RH  036%=      5-min Rain = 0
KST3 140149Z 18011KT 11/M03 A3017 RMK A01 T01141032  RH  036%=      5-min Rain = 0
KST3 140150Z 18012KT 11/M03 A3017 RMK A01 T01141032  RH  036%=      5-min Rain = 0
KST3 140151Z 18012KT 12/M03 A3017 RMK A01 T01151032  RH  036%=      5-min Rain = 0
KST3 140152Z 18012KT 12/M03 A3017 RMK A01 T01151032  RH  036%=      5-min Rain = 0
KST3 140153Z 18011KT 12/M03 A3017 RMK A01 T01151032  RH  036%=      5-min Rain = 0
KST3 140154Z 18012KT 12/M03 A3017 RMK A01 T01151032  RH  036%=      5-min Rain = 0
KST3 140155Z 18012KT 11/M03 A3017 RMK A01 T01141031  RH  036%=      5-min Rain = 0
KST3 140156Z 18013KT 11/M03 A3017 RMK A01 T01141031  RH  036%=      5-min Rain = 0
KST3 140157Z 18011KT 12/M03 A3017 RMK A01 T01151031  RH  036%=      5-min Rain = 0
KST3 140158Z 19010KT 12/M03 A3017 RMK A01 T01151031  RH  036%=      5-min Rain = 0
KST3 140159Z 19011KT 11/M03 A3017 RMK A01 T01131032  RH  036%=      5-min Rain = 0
KST3 140200Z 19011KT 11/M03 A3017 RMK A01 T01121032  RH  036%=      5-min Rain = 0
KST3 140201Z 18011KT 11/M03 A3017 RMK A01 T01121031  RH  037%=      5-min Rain = 0
KST3 140202Z 18011KT 11/M03 A3017 RMK A01 T01121031  RH  037%=      5-min Rain = 0
KST3 140203Z 18011KT 11/M03 A3017 RMK A01 T01121030  RH  037%=      5-min Rain = 0
KST3 140204Z 18010KT 11/M03 A3017 RMK A01 T01121030  RH  037%=      5-min Rain = 0
KST3 140205Z 18013KT 11/M03 A3017 RMK A01 T01101031  RH  037%=      5-min Rain = 0
KST3 140206Z 18011KT 11/M03 A3017 RMK A01 T01111030  RH  037%=      5-min Rain = 0
KST3 140207Z 18011KT 11/M03 A3017 RMK A01 T01111030  RH  037%=      5-min Rain = 0
KST3 140208Z 18010KT 11/M03 A3017 RMK A01 T01101030  RH  037%=      5-min Rain = 0
KST3 140209Z 18011KT 11/M03 A3017 RMK A01 T01091031  RH  037%=      5-min Rain = 0
KST3 140210Z 19011KT 11/M03 A3017 RMK A01 T01081030  RH  038%=      5-min Rain = 0
KST3 140211Z 19011KT 11/M03 A3017 RMK A01 T01081030  RH  038%=      5-min Rain = 0
KST3 140212Z 19010KT 11/M03 A3017 RMK A01 T01081029  RH  038%=      5-min Rain = 0
KST3 140213Z 19010KT 11/M03 A3017 RMK A01 T01091029  RH  038%=      5-min Rain = 0
KST3 140214Z 19009KT 11/M03 A3017 RMK A01 T01091029  RH  038%=      5-min Rain = 0
KST3 140215Z 19009KT 11/M03 A3017 RMK A01 T01091029  RH  038%=      5-min Rain = 0
KST3 140216Z 19010KT 11/M03 A3017 RMK A01 T01061031  RH  038%=      5-min Rain = 0
KST3 140217Z 20009KT 11/M03 A3017 RMK A01 T01051031  RH  039%=      5-min Rain = 0
KST3 140218Z 20010KT 10/M03 A3017 RMK A01 T01021032  RH  039%=      5-min Rain = 0
KST3 140219Z 20008KT 10/M03 A3017 RMK A01 T01011031  RH  039%=      5-min Rain = 0
KST3 140220Z 20009KT 10/M03 A3017 RMK A01 T01001031  RH  040%=      5-min Rain = 0
KST3 140221Z 19008KT 10/M03 A3017 RMK A01 T00991031  RH  040%=      5-min Rain = 0
KST3 140222Z 19008KT 10/M03 A3017 RMK A01 T00971031  RH  040%=      5-min Rain = 0
KST3 140223Z 19008KT 10/M03 A3017 RMK A01 T00971031  RH  041%=      5-min Rain = 0
KST3 140224Z 20010KT 10/M03 A3017 RMK A01 T00961030  RH  041%=      5-min Rain = 0
KST3 140225Z 20009KT 10/M03 A3017 RMK A01 T00971029  RH  041%=      5-min Rain = 0
KST3 140226Z 20009KT 10/M03 A3017 RMK A01 T00981029  RH  041%=      5-min Rain = 0
KST3 140227Z 20009KT 10/M03 A3017 RMK A01 T00971031  RH  040%=      5-min Rain = 0
KST3 140228Z 20010KT 10/M03 A3017 RMK A01 T00951032  RH  041%=      5-min Rain = 0
KST3 140229Z 20010KT 09/M03 A3017 RMK A01 T00941031  RH  041%=      5-min Rain = 0
KST3 140230Z 20010KT 09/M03 A3017 RMK A01 T00941030  RH  042%=      5-min Rain = 0
KST3 140231Z 20010KT 10/M03 A3017 RMK A01 T00951029  RH  042%=      5-min Rain = 0
KST3 140232Z 20010KT 10/M03 A3017 RMK A01 T00961029  RH  041%=      5-min Rain = 0
KST3 140233Z 20010KT 10/M03 A3017 RMK A01 T00961029  RH  041%=      5-min Rain = 0
KST3 140234Z 19010KT 10/M03 A3016 RMK A01 T00961028  RH  042%=      5-min Rain = 0
KST3 140235Z 20010KT 10/M03 A3016 RMK A01 T00971027  RH  042%=      5-min Rain = 0
KST3 140236Z 20011KT 10/M03 A3016 RMK A01 T00971027  RH  042%=      5-min Rain = 0
KST3 140237Z 20011KT 10/M03 A3016 RMK A01 T00981027  RH  041%=      5-min Rain = 0
KST3 140238Z 20011KT 10/M03 A3016 RMK A01 T00971028  RH  042%=      5-min Rain = 0
KST3 140239Z 20010KT 10/M03 A3016 RMK A01 T00971027  RH  042%=      5-min Rain = 0
KST3 140240Z 20010KT 10/M03 A3017 RMK A01 T00961027  RH  042%=      5-min Rain = 0
KST3 140241Z 20011KT 10/M03 A3017 RMK A01 T00961025  RH  042%=      5-min Rain = 0
KST3 140242Z 20010KT 10/M02 A3017 RMK A01 T00981024  RH  043%=      5-min Rain = 0
KST3 140243Z 20009KT 10/M02 A3017 RMK A01 T00991024  RH  042%=      5-min Rain = 0
KST3 140244Z 21009KT 10/M03 A3017 RMK A01 T00971026  RH  042%=      5-min Rain = 0
KST3 140245Z 21008KT 10/M03 A3017 RMK A01 T00961025  RH  043%=      5-min Rain = 0
KST3 140246Z 21009KT 10/M03 A3017 RMK A01 T00951025  RH  043%=      5-min Rain = 0
KST3 140247Z 21008KT 09/M03 A3017 RMK A01 T00941025  RH  043%=      5-min Rain = 0
KST3 140248Z 21008KT 09/M03 A3017 RMK A01 T00921026  RH  043%=      5-min Rain = 0
KST3 140249Z 21008KT 09/M03 A3017 RMK A01 T00911026  RH  044%=      5-min Rain = 0
KST3 140250Z 21008KT 09/M03 A3017 RMK A01 T00891027  RH  044%=      5-min Rain = 0
KST3 140251Z 21008KT 09/M03 A3017 RMK A01 T00871028  RH  044%=      5-min Rain = 0
KST3 140252Z 21007KT 09/M03 A3017 RMK A01 T00851028  RH  045%=      5-min Rain = 0
KST3 140253Z 21008KT 08/M03 A3017 RMK A01 T00841029  RH  045%=      5-min Rain = 0
KST3 140254Z 21008KT 08/M03 A3017 RMK A01 T00841027  RH  045%=      5-min Rain = 0
KST3 140255Z 20009KT 08/M03 A3017 RMK A01 T00831028  RH  046%=      5-min Rain = 0
KST3 140256Z 20008KT 08/M03 A3017 RMK A01 T00841027  RH  046%=      5-min Rain = 0
KST3 140257Z 20009KT 09/M03 A3017 RMK A01 T00861025  RH  046%=      5-min Rain = 0
KST3 140258Z 20008KT 09/M03 A3017 RMK A01 T00871025  RH  045%=      5-min Rain = 0
KST3 140259Z 21008KT 09/M03 A3017 RMK A01 T00871026  RH  045%=      5-min Rain = 0
KST3 140300Z 20009KT 09/M03 A3017 RMK A01 T00871025  RH  045%=      5-min Rain = 0
KST3 140301Z 21009KT 09/M03 A3017 RMK A01 T00861025  RH  046%=      5-min Rain = 0
KST3 140302Z 21009KT 09/M02 A3017 RMK A01 T00871024  RH  046%=      5-min Rain = 0
KST3 140303Z 21009KT 09/M02 A3017 RMK A01 T00881022  RH  046%=      5-min Rain = 0
KST3 140304Z 21010KT 09/M02 A3017 RMK A01 T00891022  RH  046%=      5-min Rain = 0
KST3 140305Z 20010KT 09/M02 A3017 RMK A01 T00901021  RH  046%=      5-min Rain = 0
KST3 140306Z 20011KT 09/M02 A3017 RMK A01 T00921019  RH  046%=      5-min Rain = 0
KST3 140307Z 21011KT 09/M02 A3017 RMK A01 T00941017  RH  046%=      5-min Rain = 0
KST3 140308Z 20013KT 10/M02 A3017 RMK A01 T00951016  RH  046%=      5-min Rain = 0
KST3 140309Z 20012KT 10/M02 A3017 RMK A01 T00981015  RH  045%=      5-min Rain = 0
KST3 140310Z 21012KT 10/M02 A3017 RMK A01 T00991015  RH  045%=      5-min Rain = 0
KST3 140311Z 21012KT 10/M02 A3017 RMK A01 T00991015  RH  045%=      5-min Rain = 0
KST3 140312Z 20011KT 10/M01 A3017 RMK A01 T01001014  RH  045%=      5-min Rain = 0
KST3 140313Z 21010KT 10/M02 A3017 RMK A01 T01001015  RH  045%=      5-min Rain = 0
KST3 140314Z 20010KT 10/M02 A3017 RMK A01 T00981016  RH  045%=      5-min Rain = 0
KST3 140315Z 20010KT 10/M02 A3017 RMK A01 T00981015  RH  045%=      5-min Rain = 0
KST3 140316Z 20010KT 10/M02 A3017 RMK A01 T00971015  RH  045%=      5-min Rain = 0
KST3 140317Z 20009KT 10/M02 A3017 RMK A01 T00961016  RH  045%=      5-min Rain = 0
KST3 140318Z 20009KT 10/M02 A3017 RMK A01 T00951016  RH  046%=      5-min Rain = 0
KST3 140319Z 20009KT 10/M02 A3017 RMK A01 T00951016  RH  046%=      5-min Rain = 0
KST3 140320Z 21009KT 10/M02 A3017 RMK A01 T00951016  RH  046%=      5-min Rain = 0
KST3 140321Z 21009KT 09/M02 A3017 RMK A01 T00941016  RH  046%=      5-min Rain = 0
KST3 140322Z 20008KT 10/M02 A3017 RMK A01 T00951016  RH  046%=      5-min Rain = 0
KST3 140323Z 20008KT 09/M02 A3017 RMK A01 T00941016  RH  046%=      5-min Rain = 0
KST3 140324Z 21009KT 09/M02 A3017 RMK A01 T00941016  RH  046%=      5-min Rain = 0
KST3 140325Z 21008KT 09/M02 A3017 RMK A01 T00941016  RH  046%=      5-min Rain = 0
KST3 140326Z 21007KT 09/M02 A3017 RMK A01 T00931016  RH  046%=      5-min Rain = 0
KST3 140327Z 21008KT 09/M02 A3017 RMK A01 T00931016  RH  047%=      5-min Rain = 0
KST3 140328Z 21008KT 09/M02 A3017 RMK A01 T00931016  RH  047%=      5-min Rain = 0
KST3 140329Z 21008KT 09/M02 A3017 RMK A01 T00921016  RH  047%=      5-min Rain = 0
KST3 140330Z 21008KT 09/M02 A3017 RMK A01 T00911017  RH  047%=      5-min Rain = 0
KST3 140331Z 21007KT 09/M02 A3017 RMK A01 T00901017  RH  047%=      5-min Rain = 0
KST3 140332Z 21007KT 09/M02 A3017 RMK A01 T00891017  RH  047%=      5-min Rain = 0
KST3 140333Z 21007KT 09/M02 A3017 RMK A01 T00881017  RH  048%=      5-min Rain = 0
KST3 140334Z 21007KT 09/M02 A3017 RMK A01 T00871017  RH  048%=      5-min Rain = 0
KST3 140335Z 21007KT 09/M02 A3017 RMK A01 T00861017  RH  048%=      5-min Rain = 0
KST3 140336Z 21007KT 09/M02 A3017 RMK A01 T00861016  RH  049%=      5-min Rain = 0
KST3 140337Z 21007KT 09/M02 A3018 RMK A01 T00861016  RH  049%=      5-min Rain = 0
KST3 140338Z 21008KT 09/M02 A3018 RMK A01 T00861016  RH  049%=      5-min Rain = 0
KST3 140339Z 21008KT 09/M02 A3018 RMK A01 T00851016  RH  049%=      5-min Rain = 0
KST3 140340Z 21008KT 08/M02 A3018 RMK A01 T00841016  RH  049%=      5-min Rain = 0
KST3 140341Z 21008KT 08/M02 A3018 RMK A01 T00841015  RH  050%=      5-min Rain = 0
KST3 140342Z 21008KT 08/M01 A3018 RMK A01 T00841014  RH  050%=      5-min Rain = 0
KST3 140343Z 21008KT 08/M01 A3018 RMK A01 T00841014  RH  050%=      5-min Rain = 0
KST3 140344Z 21009KT 08/M01 A3018 RMK A01 T00841013  RH  050%=      5-min Rain = 0
KST3 140345Z 21008KT 09/M01 A3018 RMK A01 T00851012  RH  050%=      5-min Rain = 0
KST3 140346Z 21008KT 09/M01 A3018 RMK A01 T00851012  RH  050%=      5-min Rain = 0
KST3 140347Z 21008KT 09/M01 A3018 RMK A01 T00861012  RH  050%=      5-min Rain = 0
KST3 140348Z 21007KT 09/M01 A3018 RMK A01 T00861012  RH  050%=      5-min Rain = 0
KST3 140349Z 21007KT 09/M01 A3018 RMK A01 T00861012  RH  050%=      5-min Rain = 0
KST3 140350Z 21007KT 09/M01 A3018 RMK A01 T00861011  RH  050%=      5-min Rain = 0
KST3 140351Z 21007KT 09/M01 A3018 RMK A01 T00851012  RH  050%=      5-min Rain = 0
KST3 140352Z 20007KT 08/M01 A3018 RMK A01 T00841012  RH  051%=      5-min Rain = 0
KST3 140353Z 21007KT 08/M01 A3018 RMK A01 T00841012  RH  051%=      5-min Rain = 0
KST3 140354Z 21007KT 09/M01 A3018 RMK A01 T00851010  RH  051%=      5-min Rain = 0
KST3 140355Z 21007KT 09/M01 A3018 RMK A01 T00881009  RH  051%=      5-min Rain = 0
KST3 140356Z 20007KT 09/M01 A3018 RMK A01 T00881010  RH  050%=      5-min Rain = 0
KST3 140357Z 21007KT 09/M01 A3018 RMK A01 T00881010  RH  050%=      5-min Rain = 0
KST3 140358Z 21008KT 09/M01 A3018 RMK A01 T00881010  RH  050%=      5-min Rain = 0
KST3 140359Z 20008KT 09/M01 A3018 RMK A01 T00881009  RH  051%=      5-min Rain = 0
KST3 140400Z 20007KT 09/M01 A3018 RMK A01 T00881009  RH  051%=      5-min Rain = 0
KST3 140401Z 21007KT 09/M01 A3018 RMK A01 T00881009  RH  050%=      5-min Rain = 0
KST3 140402Z 21007KT 09/M01 A3018 RMK A01 T00871010  RH  051%=      5-min Rain = 0
KST3 140403Z 21007KT 09/M01 A3018 RMK A01 T00861010  RH  051%=      5-min Rain = 0
KST3 140404Z 21008KT 09/M01 A3018 RMK A01 T00861010  RH  051%=      5-min Rain = 0
KST3 140405Z 21008KT 09/M01 A3018 RMK A01 T00851009  RH  051%=      5-min Rain = 0
KST3 140406Z 21007KT 09/M01 A3018 RMK A01 T00851008  RH  052%=      5-min Rain = 0
KST3 140407Z 22007KT 09/M01 A3018 RMK A01 T00861009  RH  052%=      5-min Rain = 0
KST3 140408Z 22007KT 09/M01 A3018 RMK A01 T00851010  RH  051%=      5-min Rain = 0
KST3 140409Z 22007KT 08/M01 A3018 RMK A01 T00841011  RH  052%=      5-min Rain = 0
KST3 140410Z 22007KT 08/M01 A3018 RMK A01 T00821010  RH  052%=      5-min Rain = 0
KST3 140411Z 22008KT 08/M01 A3018 RMK A01 T00821009  RH  053%=      5-min Rain = 0
KST3 140412Z 23008KT 08/M01 A3018 RMK A01 T00831007  RH  053%=      5-min Rain = 0
KST3 140413Z 22007KT 08/M01 A3018 RMK A01 T00841008  RH  052%=      5-min Rain = 0
KST3 140414Z 23009KT 08/M01 A3018 RMK A01 T00841007  RH  052%=      5-min Rain = 0
KST3 140415Z 22010KT 09/M01 A3018 RMK A01 T00851007  RH  053%=      5-min Rain = 0
KST3 140416Z 22010KT 09/M01 A3018 RMK A01 T00851006  RH  053%=      5-min Rain = 0
KST3 140417Z 22009KT 09/M00 A3018 RMK A01 T00871004  RH  053%=      5-min Rain = 0
KST3 140418Z 22010KT 09/M01 A3018 RMK A01 T00871006  RH  052%=      5-min Rain = 0
KST3 140419Z 22011KT 09/M01 A3018 RMK A01 T00861005  RH  052%=      5-min Rain = 0
KST3 140420Z 22011KT 09/M01 A3018 RMK A01 T00861005  RH  053%=      5-min Rain = 0
KST3 140421Z 21010KT 09/M01 A3018 RMK A01 T00871005  RH  053%=      5-min Rain = 0
KST3 140422Z 22011KT 09/M01 A3018 RMK A01 T00861005  RH  053%=      5-min Rain = 0
KST3 140423Z 22011KT 09/M00 A3018 RMK A01 T00861004  RH  053%=      5-min Rain = 0
KST3 140424Z 22011KT 09/M00 A3018 RMK A01 T00871004  RH  053%=      5-min Rain = 0
KST3 140425Z 22011KT 09/M01 A3018 RMK A01 T00851005  RH  053%=      5-min Rain = 0
KST3 140426Z 22012KT 09/M00 A3018 RMK A01 T00851004  RH  054%=      5-min Rain = 0
KST3 140427Z 22012KT 08/M00 A3018 RMK A01 T00841004  RH  054%=      5-min Rain = 0
KST3 140428Z 22011KT 09/M00 A3018 RMK A01 T00851002  RH  054%=      5-min Rain = 0
KST3 140429Z 21011KT 09/M00 A3018 RMK A01 T00851002  RH  054%=      5-min Rain = 0
KST3 140430Z 21011KT 09/M00 A3018 RMK A01 T00851003  RH  054%=      5-min Rain = 0
KST3 140431Z 21011KT 08/M00 A3018 RMK A01 T00841003  RH  054%=      5-min Rain = 0
KST3 140432Z 21011KT 08/M00 A3018 RMK A01 T00831003  RH  055%=      5-min Rain = 0
KST3 140433Z 22012KT 08/M00 A3018 RMK A01 T00831003  RH  055%=      5-min Rain = 0
KST3 140434Z 22011KT 08/M00 A3018 RMK A01 T00831002  RH  055%=      5-min Rain = 0
KST3 140435Z 22011KT 08/M00 A3018 RMK A01 T00831002  RH  055%=      5-min Rain = 0
KST3 140436Z 22011KT 08/M00 A3018 RMK A01 T00821002  RH  055%=      5-min Rain = 0
KST3 140437Z 22011KT 08/M00 A3018 RMK A01 T00821003  RH  055%=      5-min Rain = 0
KST3 140438Z 22012KT 08/M00 A3018 RMK A01 T00801003  RH  056%=      5-min Rain = 0
KST3 140439Z 22011KT 08/M00 A3018 RMK A01 T00801002  RH  056%=      5-min Rain = 0
KST3 140440Z 22012KT 08/M00 A3018 RMK A01 T00801003  RH  056%=      5-min Rain = 0
KST3 140441Z 22012KT 08/M00 A3018 RMK A01 T00791004  RH  056%=      5-min Rain = 0
KST3 140442Z 22012KT 08/M00 A3018 RMK A01 T00781003  RH  057%=      5-min Rain = 0
KST3 140443Z 22012KT 08/M00 A3018 RMK A01 T00781002  RH  057%=      5-min Rain = 0
KST3 140444Z 22013KT 08/M00 A3018 RMK A01 T00781002  RH  057%=      5-min Rain = 0
KST3 140445Z 22012KT 08/00 A3018 RMK A01 T007900-0  RH  057%=      5-min Rain = 0
KST3 140446Z 22012KT 08/00 A3018 RMK A01 T008000-0  RH  057%=      5-min Rain = 0
KST3 140447Z 22012KT 08/00 A3018 RMK A01 T008000-0  RH  057%=      5-min Rain = 0
KST3 140448Z 22012KT 08/00 A3018 RMK A01 T008000-0  RH  057%=      5-min Rain = 0
KST3 140449Z 22012KT 08/00 A3018 RMK A01 T00800000  RH  057%=      5-min Rain = 0
KST3 140450Z 22011KT 08/00 A3018 RMK A01 T00810000  RH  057%=      5-min Rain = 0
KST3 140451Z 22013KT 08/00 A3018 RMK A01 T00800000  RH  057%=      5-min Rain = 0
KST3 140452Z 22012KT 08/00 A3018 RMK A01 T00800001  RH  057%=      5-min Rain = 0
KST3 140453Z 22012KT 08/00 A3018 RMK A01 T00800000  RH  057%=      5-min Rain = 0
KST3 140454Z 22012KT 08/00 A3018 RMK A01 T00800000  RH  057%=      5-min Rain = 0
KST3 140455Z 22012KT 08/00 A3018 RMK A01 T00810001  RH  057%=      5-min Rain = 0
KST3 140456Z 22011KT 08/00 A3018 RMK A01 T00810001  RH  057%=      5-min Rain = 0
KST3 140457Z 22012KT 08/00 A3018 RMK A01 T00810000  RH  057%=      5-min Rain = 0
KST3 140458Z 22011KT 08/00 A3018 RMK A01 T00800000  RH  057%=      5-min Rain = 0
KST3 140459Z 22012KT 08/00 A3018 RMK A01 T00800001  RH  057%=      5-min Rain = 0
KST3 140500Z 22011KT 08/00 A3018 RMK A01 T00800001  RH  058%=      5-min Rain = 0
KST3 140501Z 22012KT 08/00 A3017 RMK A01 T00800001  RH  057%=      5-min Rain = 0
KST3 140502Z 22012KT 08/00 A3017 RMK A01 T00800001  RH  058%=      5-min Rain = 0
KST3 140503Z 22013KT 08/00 A3017 RMK A01 T00800001  RH  058%=      5-min Rain = 0
KST3 140504Z 22012KT 08/00 A3017 RMK A01 T00800002  RH  058%=      5-min Rain = 0
KST3 140505Z 22012KT 08/00 A3017 RMK A01 T00810002  RH  057%=      5-min Rain = 0
KST3 140506Z 22012KT 08/00 A3018 RMK A01 T00810002  RH  058%=      5-min Rain = 0
KST3 140507Z 22012KT 08/00 A3018 RMK A01 T00810002  RH  057%=      5-min Rain = 0
KST3 140508Z 22012KT 08/00 A3018 RMK A01 T00810002  RH  058%=      5-min Rain = 0
KST3 140509Z 22011KT 08/00 A3018 RMK A01 T00810002  RH  058%=      5-min Rain = 0
KST3 140510Z 22011KT 08/00 A3017 RMK A01 T00800001  RH  058%=      5-min Rain = 0
KST3 140511Z 22011KT 08/00 A3017 RMK A01 T00790002  RH  058%=      5-min Rain = 0
KST3 140512Z 22010KT 08/00 A3017 RMK A01 T00790002  RH  058%=      5-min Rain = 0
KST3 140513Z 22011KT 08/00 A3017 RMK A01 T00790003  RH  058%=      5-min Rain = 0
KST3 140514Z 22011KT 08/00 A3017 RMK A01 T00800004  RH  059%=      5-min Rain = 0
KST3 140515Z 22010KT 08/00 A3017 RMK A01 T00810003  RH  058%=      5-min Rain = 0
KST3 140516Z 22011KT 08/00 A3017 RMK A01 T00800003  RH  058%=      5-min Rain = 0
KST3 140517Z 22011KT 08/00 A3017 RMK A01 T00800003  RH  058%=      5-min Rain = 0
KST3 140518Z 22012KT 08/00 A3017 RMK A01 T00800004  RH  059%=      5-min Rain = 0
KST3 140519Z 22012KT 08/00 A3017 RMK A01 T00810004  RH  059%=      5-min Rain = 0
KST3 140520Z 22011KT 08/00 A3017 RMK A01 T00810004  RH  058%=      5-min Rain = 0
KST3 140521Z 22012KT 08/00 A3017 RMK A01 T00810004  RH  058%=      5-min Rain = 0
KST3 140522Z 22012KT 08/00 A3017 RMK A01 T00810004  RH  059%=      5-min Rain = 0
KST3 140523Z 22013KT 08/00 A3017 RMK A01 T00810004  RH  059%=      5-min Rain = 0
KST3 140524Z 22012KT 08/01 A3017 RMK A01 T00810005  RH  059%=      5-min Rain = 0
KST3 140525Z 22012KT 08/01 A3017 RMK A01 T00810005  RH  058%=      5-min Rain = 0
KST3 140526Z 22012KT 08/01 A3017 RMK A01 T00810005  RH  059%=      5-min Rain = 0
KST3 140527Z 22013KT 08/00 A3017 RMK A01 T00800004  RH  059%=      5-min Rain = 0
KST3 140528Z 22013KT 08/01 A3017 RMK A01 T00810005  RH  059%=      5-min Rain = 0
KST3 140529Z 22014KT 08/01 A3017 RMK A01 T00810006  RH  059%=      5-min Rain = 0
KST3 140530Z 22014KT 08/01 A3017 RMK A01 T00830008  RH  059%=      5-min Rain = 0
KST3 140531Z 22014KT 08/01 A3017 RMK A01 T00840007  RH  059%=      5-min Rain = 0
KST3 140532Z 22014KT 08/01 A3017 RMK A01 T00830007  RH  059%=      5-min Rain = 0
KST3 140533Z 22014KT 08/01 A3017 RMK A01 T00840007  RH  059%=      5-min Rain = 0
KST3 140534Z 22014KT 09/01 A3017 RMK A01 T00850009  RH  059%=      5-min Rain = 0
KST3 140535Z 22014KT 09/01 A3017 RMK A01 T00850009  RH  059%=      5-min Rain = 0
KST3 140536Z 22014KT 09/01 A3017 RMK A01 T00850009  RH  059%=      5-min Rain = 0
KST3 140537Z 22014KT 09/01 A3017 RMK A01 T00860010  RH  059%=      5-min Rain = 0
KST3 140538Z 22014KT 09/01 A3017 RMK A01 T00860010  RH  059%=      5-min Rain = 0
KST3 140539Z 22015KT 09/01 A3017 RMK A01 T00860010  RH  059%=      5-min Rain = 0
KST3 140540Z 22015KT 09/01 A3017 RMK A01 T00860010  RH  059%=      5-min Rain = 0
KST3 140541Z 22015KT 09/01 A3017 RMK A01 T00860011  RH  059%=      5-min Rain = 0
KST3 140542Z 22015KT 09/01 A3017 RMK A01 T00870012  RH  059%=      5-min Rain = 0
KST3 140543Z 23014KT 09/01 A3017 RMK A01 T00880012  RH  059%=      5-min Rain = 0
KST3 140544Z 23015KT 09/01 A3017 RMK A01 T00880012  RH  059%=      5-min Rain = 0
KST3 140545Z 23015KT 09/01 A3017 RMK A01 T00880013  RH  059%=      5-min Rain = 0
KST3 140546Z 23015KT 09/01 A3017 RMK A01 T00890013  RH  059%=      5-min Rain = 0
KST3 140547Z 23014KT 09/01 A3017 RMK A01 T00890013  RH  059%=      5-min Rain = 0
KST3 140548Z 23016KT 09/01 A3017 RMK A01 T00890013  RH  059%=      5-min Rain = 0
KST3 140549Z 23015KT 09/01 A3017 RMK A01 T00890014  RH  059%=      5-min Rain = 0
KST3 140550Z 23016KT 09/01 A3017 RMK A01 T00890014  RH  059%=      5-min Rain = 0
KST3 140551Z 23015KT 09/01 A3017 RMK A01 T00890014  RH  059%=      5-min Rain = 0
KST3 140552Z 23016KT 09/01 A3017 RMK A01 T00890014  RH  059%=      5-min Rain = 0
KST3 140553Z 23015KT 09/02 A3017 RMK A01 T00900015  RH  059%=      5-min Rain = 0
KST3 140554Z 23015KT 09/02 A3017 RMK A01 T00900015  RH  059%=      5-min Rain = 0
KST3 140555Z 23014KT 09/02 A3017 RMK A01 T00900015  RH  059%=      5-min Rain = 0
KST3 140556Z 23016KT 09/02 A3016 RMK A01 T00900015  RH  059%=      5-min Rain = 0
KST3 140557Z 23016KT 09/02 A3016 RMK A01 T00900015  RH  059%=      5-min Rain = 0
KST3 140558Z 23015KT 09/02 A3016 RMK A01 T00900015  RH  059%=      5-min Rain = 0
KST3 140559Z 23017KT 09/02 A3016 RMK A01 T00900016  RH  059%=      5-min Rain = 0

Page generated in 0.1219 seconds.